ECMWFFLT2_850_rhum_030.txt.gz
RH
61 62 69 75 78 82 87 89 93 97 97 99 100 99 99 100 100 100 100 100 100 100 100 100 100 100 99 98 95 93 94 92 90 89 91 94 90 87 87 87 83 82 88 95 101 99 93 91 86 83 79 68
46 46 49 53 56 62 69 72 76 83 88 94 96 95 95 99 101 100 100 99 99 100 100 100 100 100 99 98 97 94 94 93 91 90 91 92 90 88 87 85 82 81 82 89 99 101 94 93 90 86 83 71
37 36 35 35 38 44 51 57 61 64 68 77 86 86 83 88 94 96 99 98 96 97 99 100 100 100 100 99 98 96 95 95 95 93 91 91 91 89 90 87 83 81 80 83 91 100 98 94 93 89 85 77
30 29 28 27 28 30 33 41 50 53 53 57 66 70 66 68 74 77 83 90 92 91 91 94 96 99 100 100 99 100 99 97 97 96 93 94 92 88 88 90 88 84 81 81 83 93 100 96 95 92 87 81
25 24 23 24 24 24 23 26 33 40 43 45 49 52 52 50 51 53 55 60 68 75 78 78 82 88 93 96 96 97 99 98 97 97 96 95 93 89 87 89 91 88 83 82 81 87 99 99 95 93 89 82
24 23 23 23 22 22 22 21 22 24 27 31 35 38 42 43 37 37 39 38 40 46 54 61 66 69 74 84 87 86 91 97 99 98 96 96 96 95 91 88 89 90 87 84 84 89 98 100 95 94 90 81
24 24 24 23 23 23 22 22 21 21 20 21 23 25 34 42 40 36 35 36 36 32 31 38 48 52 56 66 74 73 75 82 92 97 96 97 99 99 98 93 89 89 90 89 87 87 92 96 96 95 92 83
24 25 24 24 24 24 24 23 22 22 22 21 20 20 23 31 38 38 34 32 38 40 34 30 30 34 39 47 57 63 63 64 73 83 88 93 96 97 99 97 93 90 91 92 87 83 85 94 97 93 92 87
24 24 24 24 24 24 24 24 24 23 23 22 21 21 20 21 25 29 30 27 28 36 42 41 34 28 28 30 34 44 54 56 57 63 71 79 84 88 93 95 95 91 92 94 90 85 84 91 97 94 92 89
23 23 23 23 23 23 23 23 23 23 23 22 21 20 20 19 19 19 21 21 19 21 29 38 43 41 36 31 26 24 31 40 45 48 53 59 63 68 77 87 93 92 92 95 95 93 89 90 96 96 95 92
20 20 20 20 20 20 21 21 21 21 20 20 20 19 18 17 17 17 16 17 17 16 16 20 30 37 39 40 40 32 21 20 25 31 38 44 48 48 51 62 79 90 93 94 94 96 96 94 95 96 97 95
19 17 16 16 16 16 16 17 16 17 17 16 17 17 16 16 14 15 14 15 15 14 14 13 15 20 25 29 37 41 34 22 13 14 21 28 36 37 33 35 47 66 82 92 94 95 98 96 95 96 95 96
19 17 15 14 12 12 13 14 14 14 16 16 15 14 14 14 13 13 14 13 13 12 12 12 12 12 15 16 19 25 32 34 23 11 10 15 22 27 28 25 24 32 47 69 86 93 96 95 94 95 95 95
20 18 15 13 11 10 10 12 13 16 21 21 19 16 13 14 14 13 14 13 13 13 12 11 11 11 11 11 12 12 15 26 27 17 11 10 12 15 19 21 19 17 18 33 60 79 90 94 94 96 96 93
21 19 16 14 11 10 9 10 12 16 26 32 30 24 17 16 17 16 16 15 14 15 14 13 12 11 11 9 9 10 9 12 17 15 12 11 10 10 11 14 15 14 11 12 27 50 70 84 91 96 95 89
21 19 16 14 12 10 9 8 10 14 25 40 43 37 29 22 20 20 19 18 16 16 17 17 15 13 12 12 11 10 9 8 9 10 10 11 11 10 8 9 11 11 11 8 10 22 40 57 73 87 92 92
21 19 17 15 13 12 10 8 9 11 26 48 51 43 35 28 26 27 25 22 18 17 19 19 17 15 13 13 14 13 12 11 9 9 9 11 11 11 9 8 8 8 9 8 8 11 19 30 44 61 73 86
22 20 18 17 15 13 11 9 9 11 23 41 42 34 32 33 34 35 35 29 23 22 23 22 19 16 14 13 13 14 16 16 16 15 13 12 11 11 11 8 8 8 8 8 7 8 14 20 27 36 46 60
23 21 19 18 18 16 14 11 9 12 19 30 37 36 37 41 43 43 43 38 34 31 29 26 23 19 16 13 12 12 16 20 22 25 25 23 17 12 12 11 9 8 9 9 7 7 11 20 27 29 32 40
25 25 23 22 20 17 15 13 12 13 14 22 35 44 48 51 51 48 49 48 45 42 40 36 29 24 18 14 14 14 16 21 27 34 37 37 34 24 17 14 12 11 10 9 9 8 7 16 29 32 31 31
29 29 28 27 25 21 17 15 15 15 13 14 20 28 37 41 40 44 55 64 62 55 49 46 39 31 21 15 17 17 18 24 34 44 47 49 54 49 34 24 18 14 13 13 11 11 10 12 23 36 43 39
33 32 32 32 31 27 21 18 18 17 15 14 14 17 22 22 21 34 57 74 83 77 63 54 49 41 30 22 21 22 22 26 34 44 50 54 63 66 57 48 38 26 18 16 14 13 15 15 18 32 51 61
38 37 37 37 37 35 30 25 23 22 19 17 18 19 20 20 19 30 54 75 87 88 79 67 58 53 43 30 24 27 26 27 36 46 52 55 60 66 67 62 56 47 32 23 20 15 15 17 20 26 41 63
44 44 41 41 44 43 40 34 28 28 25 19 17 16 16 19 20 21 40 69 83 85 86 79 68 62 56 42 30 31 33 37 48 57 57 57 62 65 68 69 68 65 53 36 26 21 17 16 18 24 33 51
46 48 47 47 49 47 44 40 36 35 31 24 19 15 13 13 16 18 30 61 86 88 88 87 78 69 65 58 48 42 43 46 49 53 56 59 64 66 68 74 76 75 71 60 47 37 28 23 19 18 23 38
46 50 51 51 52 51 48 45 43 42 35 29 24 17 14 11 14 20 27 50 80 94 95 92 82 73 71 71 68 63 55 49 47 53 61 65 69 73 73 76 76 74 76 74 67 59 52 46 38 28 20 22
51 53 52 52 55 52 49 48 47 46 44 43 41 34 27 19 13 16 24 33 51 74 88 90 84 76 72 73 78 80 72 65 64 68 75 78 78 80 80 79 79 78 76 71 64 65 67 58 49 44 36 25
58 59 58 60 63 59 54 54 54 53 55 55 57 57 50 37 31 35 41 32 26 38 57 70 78 79 73 71 78 86 87 83 82 83 88 90 88 85 81 80 81 82 80 74 64 60 62 59 56 52 50 53
60 61 63 64 65 64 61 61 60 59 60 60 61 64 61 55 51 51 48 37 26 26 32 40 53 68 72 71 76 84 87 87 87 89 92 94 93 90 87 85 82 81 84 83 75 64 58 57 57 56 62 78
64 66 67 65 66 67 65 65 64 62 62 64 63 61 61 60 59 52 42 38 39 39 41 42 44 51 64 73 80 83 85 87 87 90 93 95 95 92 92 94 91 88 88 88 85 77 68 61 59 66 80 87
72 73 71 71 73 74 72 70 68 65 64 65 65 64 63 60 57 50 41 45 60 64 61 62 56 46 51 67 79 85 88 88 85 89 93 91 92 96 96 96 99 98 91 89 89 85 81 78 72 72 82 84

ECMWFFLT2_850_rhum_033.txt.gz
RH
42 44 47 52 59 67 74 80 85 90 94 96 99 99 99 100 100 98 98 99 100 100 100 100 99 100 100 100 100 99 98 96 92 92 97 95 92 93 94 93 89 92 98 93 97 97 86 85 88 87 84 74
29 30 30 34 41 47 53 58 64 71 78 86 93 95 95 97 98 97 99 100 99 100 99 100 100 99 100 100 100 100 100 99 96 95 97 95 92 92 92 93 90 90 95 95 93 95 92 89 90 87 87 77
24 24 24 26 27 30 34 39 45 50 57 69 79 84 85 88 93 95 97 98 98 99 97 97 99 100 99 100 100 99 100 100 98 98 97 95 91 89 89 89 88 87 91 97 94 92 95 94 91 88 86 80
24 23 23 23 22 22 23 26 30 34 39 48 57 65 71 74 78 86 91 91 91 92 90 88 89 91 91 93 98 100 100 101 100 99 98 94 90 88 87 87 87 87 90 96 94 90 95 98 93 88 84 82
25 25 24 23 23 23 21 21 22 23 26 30 34 41 52 61 62 66 73 76 79 81 79 74 69 69 68 69 79 88 93 99 101 100 99 97 93 91 88 88 87 87 89 93 95 90 95 99 96 91 84 85
24 26 27 25 23 24 23 22 22 21 21 22 22 24 32 45 53 55 59 62 63 65 64 63 60 54 49 46 50 60 70 82 95 99 100 100 95 93 92 90 88 89 88 92 97 93 96 97 96 96 87 86
25 25 28 26 23 24 25 23 23 23 22 22 21 21 21 26 36 43 50 57 59 62 59 56 56 52 47 43 40 42 47 55 71 86 95 99 98 97 97 93 91 93 91 93 98 95 95 95 95 98 91 88
27 24 25 25 21 23 26 21 22 23 22 23 22 22 21 20 22 25 31 39 47 59 66 65 61 58 56 52 46 39 37 38 44 58 76 89 95 97 97 96 94 93 93 95 97 95 94 91 92 96 94 93
32 27 26 23 19 23 24 19 23 23 20 21 22 21 20 20 19 19 20 20 25 36 52 66 67 65 67 67 62 51 39 33 32 34 47 67 82 89 92 95 96 94 93 93 94 96 96 90 91 95 94 94
34 31 29 24 20 23 21 18 24 23 19 21 25 24 20 18 17 17 18 16 17 19 26 41 52 57 61 60 62 65 57 42 32 27 26 37 55 68 78 86 90 93 94 93 93 97 100 93 92 96 94 93
34 31 31 27 23 25 22 18 20 18 20 30 36 33 25 18 15 14 15 16 15 16 16 19 28 38 44 42 40 48 60 55 41 34 26 22 26 36 53 65 69 81 91 93 95 97 100 96 92 94 94 95
31 30 30 28 26 27 25 19 16 13 22 42 48 42 35 22 15 16 16 19 16 13 13 12 15 20 27 32 29 25 32 42 40 37 35 29 21 16 25 36 40 51 72 84 92 98 101 98 96 94 90 93
29 28 27 27 26 27 27 21 18 17 25 46 53 51 46 27 18 22 21 25 23 16 13 11 10 11 13 18 23 21 16 20 24 25 29 35 33 22 14 18 22 26 39 55 71 85 96 98 97 96 91 86
26 25 25 24 24 26 26 22 20 22 25 38 54 62 56 37 32 32 27 31 32 28 24 14 11 11 10 9 11 15 15 13 14 13 15 23 32 32 21 13 15 16 17 23 34 49 68 85 95 98 96 88
26 24 23 23 23 24 25 23 23 24 23 36 56 66 62 48 42 39 36 40 42 42 35 24 26 22 13 11 10 10 11 10 10 10 9 9 16 25 25 19 13 11 12 13 13 18 31 52 75 92 98 94
25 25 23 22 21 21 23 23 24 22 25 42 56 59 59 49 40 45 52 53 50 46 38 34 38 34 27 23 18 16 12 7 7 8 7 6 6 11 17 21 19 13 10 10 10 10 12 20 38 65 86 94
24 24 24 22 21 20 20 21 23 23 30 45 50 49 53 53 52 59 65 64 57 48 43 45 45 43 47 44 39 37 23 9 8 8 7 6 4 5 8 13 17 16 11 9 9 9 9 10 14 30 56 78
25 24 24 22 20 20 19 18 20 23 29 35 36 42 50 54 59 64 71 73 68 62 56 54 54 56 59 58 59 52 30 19 20 12 5 5 5 4 3 5 9 12 12 9 8 8 8 9 9 12 26 47
32 29 27 26 24 23 21 19 18 19 23 25 25 33 41 46 53 59 59 58 62 75 75 66 61 63 64 64 66 58 40 40 43 29 17 13 11 8 5 4 4 7 10 9 8 8 7 7 9 9 12 21
42 39 37 37 35 34 34 32 32 27 22 21 22 25 31 37 42 41 34 32 50 74 82 78 72 67 66 68 72 70 58 53 52 50 51 42 29 19 10 6 4 5 7 8 8 7 8 7 7 8 8 13
47 46 46 46 45 46 48 49 49 45 35 26 24 25 30 32 28 25 24 24 38 62 77 81 79 74 70 69 74 77 71 65 61 60 66 66 58 46 34 25 19 14 11 9 8 5 6 7 6 8 7 8
49 49 50 50 49 49 51 53 53 50 47 41 34 32 32 28 23 21 23 23 26 43 66 78 79 78 75 73 74 78 78 75 71 65 63 66 70 68 61 55 46 40 35 27 20 11 6 7 6 7 7 6
49 49 50 52 51 50 51 53 51 47 49 48 44 43 40 32 24 21 20 23 28 37 56 72 78 77 75 75 74 77 80 77 74 72 70 69 71 74 73 69 62 56 53 46 38 26 13 8 6 6 7 7
42 43 42 46 49 48 49 50 50 49 48 46 44 48 51 44 36 31 25 20 25 39 56 69 78 80 79 79 76 77 80 79 77 76 77 79 79 81 81 79 73 65 62 59 53 44 30 17 9 6 6 7
38 41 39 42 45 45 46 48 50 49 48 46 48 52 57 58 55 54 47 33 25 31 47 59 67 76 83 83 78 75 77 77 77 78 81 83 82 83 83 82 80 75 73 72 66 59 53 42 27 15 8 7
40 42 43 45 48 48 49 50 51 50 49 51 53 55 56 58 61 64 62 56 49 43 47 56 57 57 67 78 79 74 75 76 75 77 81 84 83 82 81 79 78 76 74 72 69 67 63 59 51 38 22 11
44 46 48 51 53 56 56 56 56 53 53 53 50 50 50 50 54 60 62 62 65 59 51 50 49 46 47 58 71 74 74 75 75 76 78 82 84 82 80 77 76 76 74 69 67 67 65 58 53 49 42 33
46 49 54 59 61 62 62 61 60 57 55 53 50 48 48 49 51 54 56 58 62 61 54 46 43 48 52 53 59 67 71 74 75 76 77 80 83 84 81 78 76 74 73 72 69 66 63 56 50 47 46 46
53 58 65 68 67 66 65 63 62 61 60 57 55 53 50 49 49 49 52 57 59 59 59 52 42 47 61 63 59 60 63 69 74 76 77 80 83 84 83 81 78 73 70 73 73 69 63 56 52 49 48 50
65 71 75 74 71 71 69 67 65 64 63 60 58 57 55 53 51 51 53 54 55 55 56 52 46 55 69 71 68 66 64 64 71 77 77 77 80 82 84 85 81 76 72 71 72 74 72 63 56 52 58 66
75 78 78 77 77 76 73 71 68 66 65 64 63 62 61 59 55 54 54 53 50 49 54 54 54 64 72 72 70 68 67 66 70 78 76 73 77 81 85 87 85 83 79 75 74 76 79 76 71 63 64 71

ECMWFFLT2_850_rhum_036.txt.gz
RH
25 26 27 30 33 39 46 50 58 66 70 78 88 94 97 98 100 98 98 98 99 100 99 99 99 100 100 100 100 100 100 99 98 97 96 92 91 91 87 89 91 93 94 94 95 95 95 89 83 80 81 78
26 25 23 23 23 24 28 34 39 44 48 55 68 79 87 92 95 96 94 93 95 97 99 100 100 100 99 100 100 100 100 100 100 100 99 95 92 94 93 94 94 93 91 93 95 95 96 89 85 85 85 81
28 30 27 24 23 23 22 23 25 28 32 36 45 56 69 79 83 86 87 87 89 92 95 97 98 98 98 99 100 100 100 100 100 100 100 98 96 98 97 95 95 94 92 94 94 96 95 85 85 90 88 84
26 28 27 24 24 26 23 21 21 21 22 24 29 36 46 58 66 72 76 77 78 81 86 89 91 91 92 95 96 98 99 100 100 100 100 100 100 99 99 98 98 95 91 94 95 96 92 82 85 92 91 87
26 26 25 23 23 27 25 21 23 22 21 21 21 23 27 36 47 57 63 67 68 69 72 77 81 82 83 85 86 87 90 95 98 99 100 99 100 100 100 100 99 96 90 90 94 95 92 82 81 91 93 89
29 28 27 25 24 27 24 22 24 23 22 22 22 21 20 23 28 35 44 53 59 61 63 66 71 71 72 76 77 74 73 81 85 91 101 101 100 100 100 101 98 96 93 91 93 96 94 85 79 87 94 92
32 31 30 30 28 28 25 23 23 21 21 21 23 24 22 20 19 21 25 32 39 45 50 57 65 68 66 66 69 66 61 63 64 68 84 96 101 100 99 100 99 96 92 93 97 97 96 90 81 83 89 93
34 34 33 33 32 31 29 28 25 23 21 23 29 29 25 23 19 18 18 20 23 27 31 37 49 61 66 66 66 64 58 56 54 50 53 70 89 98 100 100 99 97 94 93 94 98 100 93 85 86 89 93
35 35 35 35 34 33 32 32 31 29 25 27 42 44 31 24 20 18 17 17 18 20 21 22 26 37 51 62 67 68 65 60 57 53 44 44 58 77 91 99 101 99 98 96 93 98 101 94 91 93 95 96
32 33 34 34 35 33 33 33 32 34 30 29 44 54 44 32 24 19 16 15 15 16 16 17 18 20 27 40 52 62 68 68 65 63 57 45 40 49 64 79 94 100 101 97 95 100 99 97 94 92 96 98
30 30 30 31 32 32 33 33 31 32 31 30 34 49 56 43 31 24 19 16 14 14 14 14 15 15 16 20 28 37 48 61 65 64 65 61 48 42 44 53 69 85 100 101 96 99 100 100 93 85 93 97
28 27 27 27 28 29 31 32 32 29 28 29 27 44 61 50 36 29 23 19 16 15 15 13 13 12 13 14 16 19 26 39 53 56 57 63 63 55 45 41 43 50 76 99 100 99 99 101 93 85 90 93
27 26 25 25 25 25 27 28 30 29 26 25 25 41 54 43 33 29 24 22 21 20 18 15 13 11 12 12 13 15 18 23 37 48 50 53 61 65 54 40 36 33 44 70 91 101 101 99 96 91 89 89
25 25 24 23 23 22 23 24 26 27 26 24 25 34 40 32 28 26 26 27 28 28 24 17 13 14 13 11 12 15 19 19 24 36 46 49 50 56 57 41 32 31 26 32 54 82 98 101 100 97 93 87
24 23 23 22 21 20 21 21 22 24 25 24 24 26 28 28 27 27 29 33 35 32 28 23 18 16 14 13 20 26 26 21 18 22 33 45 48 47 50 44 32 26 24 21 23 40 67 86 94 97 97 92
29 28 27 25 23 20 19 18 19 20 23 24 24 22 22 24 26 29 31 31 30 28 27 24 21 22 20 19 26 35 41 37 25 16 19 33 44 45 44 44 34 20 20 26 20 15 26 45 63 79 91 96
38 36 35 34 32 29 25 24 22 20 21 23 24 23 21 22 24 27 28 26 23 21 19 16 23 36 34 28 33 45 54 51 33 15 18 26 32 39 41 41 39 26 16 20 25 21 15 15 26 45 67 86
43 44 43 41 40 39 37 37 37 35 32 30 28 26 24 21 22 24 23 23 21 17 14 11 21 43 50 44 44 50 50 46 37 25 28 28 20 24 31 32 35 34 24 15 18 24 20 14 12 17 33 55
44 47 47 46 45 45 45 45 47 49 49 46 41 37 33 27 23 22 21 22 21 18 17 13 13 30 55 65 55 45 43 45 43 36 33 33 32 37 40 33 26 29 31 22 14 13 14 16 15 11 13 23
43 46 46 47 48 49 49 49 49 52 54 54 51 47 44 39 33 28 23 21 21 20 19 18 13 14 37 67 73 59 50 49 49 50 48 45 51 59 59 51 33 21 21 22 17 10 7 10 14 15 12 10
38 40 41 44 46 48 50 50 50 51 54 53 50 51 49 47 46 45 39 27 23 24 22 20 18 13 16 43 73 76 65 59 59 67 68 55 53 61 68 72 64 46 30 21 16 10 6 6 10 16 16 11
32 34 35 38 39 41 44 46 47 48 52 51 50 51 49 48 51 56 56 45 39 40 37 29 25 22 17 28 60 78 75 72 69 72 73 60 52 55 62 69 74 70 56 40 28 16 7 5 6 12 16 15
36 36 36 36 36 37 38 40 42 43 47 50 51 49 48 49 53 57 60 58 59 60 55 49 42 36 30 31 51 72 76 76 76 74 74 69 64 61 59 58 59 63 63 57 46 28 11 5 4 5 10 13
44 43 40 40 39 40 41 41 42 43 46 49 49 47 47 50 53 54 56 58 62 65 63 64 61 55 50 42 42 55 65 70 77 78 76 74 73 74 73 71 69 70 71 67 54 35 17 7 5 4 4 6
51 51 48 47 46 44 45 47 49 50 51 51 51 50 50 52 51 50 50 50 54 58 60 66 67 64 60 50 39 38 40 46 61 74 78 76 73 75 78 78 78 79 81 77 66 50 33 17 8 7 5 4
62 63 59 56 54 51 50 53 55 57 58 58 57 56 55 53 50 49 47 48 50 52 54 58 63 62 59 54 48 41 32 28 34 46 63 74 75 76 78 75 69 69 75 79 76 67 55 38 22 15 13 10
73 72 66 62 62 61 61 64 64 64 64 63 61 58 56 56 54 52 50 48 48 49 50 52 55 57 56 54 52 49 43 38 34 31 41 61 70 72 77 75 65 63 70 75 74 73 70 59 46 36 26 18
78 76 72 68 68 69 70 72 71 69 67 63 62 59 59 61 60 57 53 51 50 49 49 50 52 54 53 51 50 49 48 51 55 48 39 47 63 71 74 76 75 74 74 74 74 74 71 65 62 54 39 31
74 74 73 71 73 74 74 74 72 71 69 66 64 63 63 64 62 60 58 55 54 52 51 51 51 52 52 51 51 53 55 60 66 64 52 48 60 74 78 77 79 81 78 74 76 76 71 65 65 59 48 45
68 67 64 64 68 72 75 76 75 73 71 69 66 65 64 64 63 62 61 59 57 56 55 55 54 53 52 52 56 61 66 70 72 70 64 58 58 67 74 77 80 82 79 74 74 76 73 69 66 61 56 54
67 66 64 64 64 66 69 71 71 69 68 67 68 68 67 66 66 65 63 61 61 60 60 62 61 58 58 59 62 65 65 66 74 79 73 65 62 64 69 74 78 80 79 77 73 72 72 72 70 65 66 66

ECMWFFLT2_850_rhum_039.txt.gz
RH
30 28 25 28 30 26 24 26 25 25 31 39 47 57 69 79 86 90 94 97 99 99 98 99 99 100 100 100 101 100 100 100 100 100 100 99 99 94 88 91 91 93 94 93 95 97 99 95 91 86 79 77
27 26 25 25 28 26 24 25 24 22 23 25 30 39 48 59 69 76 82 87 91 92 94 95 95 97 99 100 99 99 100 100 101 100 100 99 100 98 93 93 92 92 93 94 95 95 98 95 91 86 82 81
28 28 28 26 26 25 24 24 24 22 22 22 23 27 31 39 50 60 68 73 76 80 84 87 88 91 94 97 97 97 98 99 101 100 100 100 100 100 99 98 96 94 94 97 95 93 98 95 92 88 84 83
30 30 30 29 28 27 27 26 25 24 23 23 23 23 23 25 32 42 50 57 62 66 72 77 79 82 84 87 90 92 92 94 98 100 101 100 100 100 100 100 99 97 96 99 96 92 96 96 95 88 85 85
33 33 33 32 31 30 30 29 28 27 25 24 24 25 25 22 22 25 30 37 44 48 54 62 67 72 76 77 80 84 86 88 91 96 100 100 100 99 100 100 100 99 98 100 99 96 97 99 94 86 89 90
36 35 34 34 34 33 33 32 31 31 30 28 27 27 27 25 22 20 20 22 27 32 37 43 51 60 68 72 73 75 78 82 85 89 94 98 100 100 100 100 100 100 99 99 100 99 99 99 90 85 93 94
41 39 37 36 35 35 34 35 34 34 33 32 31 30 28 26 24 23 20 18 18 21 24 28 34 42 51 61 68 71 72 74 76 79 84 90 96 98 100 101 99 100 100 100 100 100 99 98 89 86 94 96
46 44 43 41 38 37 36 35 35 36 35 35 34 32 30 28 27 26 23 20 18 17 18 20 23 26 32 41 51 60 67 70 70 70 73 79 86 89 95 101 101 99 100 99 100 100 99 99 95 89 95 99
48 48 47 45 42 40 38 37 35 35 35 35 35 33 32 31 30 30 28 25 22 19 18 17 17 18 21 27 33 41 49 59 67 70 70 70 74 78 82 93 100 100 100 99 100 101 99 100 99 95 97 100
46 48 48 47 45 41 38 37 36 34 34 33 33 34 34 33 33 32 31 30 28 25 22 19 17 15 15 18 22 27 31 38 49 60 69 70 69 71 72 78 86 93 99 101 100 100 101 100 99 97 98 101
38 40 41 41 41 37 32 30 30 29 30 30 30 32 34 34 34 33 32 32 32 31 28 25 22 18 15 14 14 18 22 27 32 38 53 66 69 69 68 69 70 75 84 93 100 101 99 100 100 100 99 100
29 29 29 28 28 26 22 20 20 22 24 25 26 28 30 32 33 34 33 32 32 32 32 31 28 24 20 17 14 13 15 22 29 30 34 45 58 65 68 68 66 67 68 74 89 100 101 100 100 99 101 100
29 26 25 23 21 18 17 16 16 18 20 22 24 25 26 28 29 31 33 33 32 31 30 30 30 29 26 21 16 15 13 15 23 30 32 33 40 51 61 67 69 71 71 67 70 82 92 98 101 100 100 98
34 32 29 27 24 20 19 18 18 18 19 21 23 24 25 26 26 27 29 31 31 30 28 26 27 28 28 25 19 17 16 15 15 21 28 30 32 39 47 56 65 72 76 73 67 69 75 81 90 98 101 98
40 39 37 34 29 27 26 25 25 24 23 24 26 27 27 26 25 26 26 26 27 27 27 25 24 23 24 24 22 19 17 16 15 15 19 23 25 33 41 46 54 64 70 73 71 70 71 69 70 79 92 99
42 42 39 37 35 33 33 34 33 32 32 32 34 34 33 30 28 28 27 25 25 25 25 25 23 20 19 20 20 21 19 18 17 15 16 17 16 24 38 43 47 55 62 67 69 70 72 72 67 63 71 85
42 40 36 35 36 36 36 38 37 36 38 40 42 44 43 40 36 33 31 27 24 23 22 22 22 20 18 17 17 21 21 19 19 17 14 14 13 15 26 36 44 50 57 63 67 67 69 72 72 62 58 67
42 39 36 35 36 37 38 39 39 37 39 42 46 50 50 48 45 43 39 35 31 27 25 22 20 20 19 17 17 25 29 24 20 19 16 14 15 13 13 22 36 47 53 58 66 68 66 66 70 67 58 55
39 38 38 40 39 38 39 40 40 39 39 41 46 51 52 50 49 48 46 46 42 36 32 28 24 21 19 19 16 21 32 35 30 24 22 20 19 16 13 18 30 44 52 52 59 68 68 63 63 68 62 50
37 38 40 44 45 43 43 41 41 41 41 41 45 50 52 51 51 49 48 51 48 40 38 38 35 29 24 22 18 16 26 42 47 40 34 31 31 29 23 25 31 39 49 51 51 58 67 68 63 63 64 56
39 41 42 45 46 45 46 44 41 41 43 44 46 50 51 50 49 48 49 50 47 43 45 48 47 43 36 29 23 19 24 41 57 60 53 45 45 48 40 36 38 42 52 57 53 49 56 67 71 65 61 59
40 41 40 42 44 45 47 49 46 44 46 47 48 49 49 50 50 49 50 49 46 46 52 54 53 51 48 44 39 32 28 36 54 68 73 63 53 56 55 46 42 48 58 64 59 48 43 52 66 73 67 58
46 46 43 41 40 41 43 49 54 53 52 50 50 50 50 51 53 53 53 51 48 50 56 56 53 51 50 52 52 47 37 32 36 48 63 71 65 59 59 58 54 52 56 60 59 48 34 33 44 62 72 65
61 60 59 57 52 50 48 51 59 62 60 57 54 52 53 53 54 55 55 54 52 52 54 52 50 50 49 50 50 48 42 33 27 25 29 44 60 64 62 63 66 65 64 60 52 41 28 21 24 35 53 64
71 69 69 69 69 68 66 65 66 68 67 64 61 58 57 58 57 57 56 55 54 53 53 51 49 49 49 49 48 47 44 38 31 24 17 15 29 52 64 67 68 69 73 72 62 52 42 29 22 22 28 41
69 70 70 71 73 74 73 72 71 73 74 71 68 65 63 62 62 61 58 55 54 52 53 54 52 50 49 49 49 48 47 45 38 29 22 15 13 24 41 56 68 71 72 75 73 70 67 50 29 21 19 20
69 71 74 75 74 72 70 68 66 68 74 75 74 71 68 65 64 62 60 58 57 56 56 57 55 53 52 51 50 50 48 49 48 40 36 37 37 33 28 29 45 64 72 73 71 72 76 66 48 34 21 15
77 77 77 75 72 69 63 57 54 56 64 70 71 72 70 68 66 63 62 62 61 60 59 59 58 56 54 52 51 51 51 53 53 51 55 62 64 62 51 36 31 44 63 74 75 77 77 73 72 62 39 29
77 78 75 70 68 62 57 56 57 58 62 64 64 67 68 67 66 64 62 60 58 57 58 58 57 56 55 54 55 56 57 61 61 58 62 70 71 71 68 61 51 44 53 71 79 81 83 81 84 78 62 55
70 72 69 69 68 65 71 79 77 73 71 67 65 64 63 63 62 60 59 58 58 59 59 59 59 59 59 60 62 64 62 62 65 64 63 66 70 71 70 71 69 59 58 69 76 79 83 86 87 82 76 76
64 66 68 72 71 73 87 94 87 81 76 72 68 65 63 61 60 59 59 60 60 60 61 61 61 61 62 62 60 62 64 63 64 66 65 67 68 62 60 69 76 71 66 67 72 78 80 81 85 85 83 82

ECMWFFLT2_850_rhum_042.txt.gz
RH
31 31 31 30 30 31 31 32 32 32 31 27 27 34 45 58 70 73 67 66 73 81 89 92 93 95 97 99 100 100 100 100 100 100 100 98 99 98 96 94 91 94 95 95 96 96 96 94 90 84 77 74
33 33 33 33 32 33 33 33 34 34 34 32 28 27 30 35 44 57 63 63 64 70 77 81 85 89 91 94 97 99 99 100 100 100 101 100 100 99 98 97 93 95 95 95 99 98 96 96 94 87 81 77
35 36 36 36 35 35 35 35 35 35 35 35 33 29 28 29 29 33 42 49 53 59 67 73 77 80 83 88 92 95 95 96 96 97 100 101 100 100 100 100 96 95 93 94 98 99 98 96 96 91 86 80
38 38 38 38 38 37 38 38 37 37 36 36 36 34 31 30 29 27 29 33 37 41 47 57 67 71 75 81 84 86 88 88 88 89 94 98 101 100 100 100 99 96 92 92 97 100 98 97 97 93 88 84
37 39 40 41 40 40 40 40 41 41 39 38 37 38 36 33 31 29 28 28 28 28 27 32 43 52 61 71 76 78 80 82 82 84 86 91 96 100 100 100 100 99 95 93 98 100 99 99 98 93 90 88
32 34 37 39 41 42 43 43 44 44 43 41 38 39 38 37 36 33 32 30 28 26 24 22 23 28 35 47 60 67 73 77 77 79 81 85 89 93 98 100 100 100 99 98 99 100 100 101 97 92 92 90
28 26 27 30 34 38 42 45 46 47 47 44 40 38 38 38 38 37 36 34 32 29 28 25 23 21 19 23 33 45 60 69 72 74 75 80 83 86 93 98 100 100 100 100 100 100 100 99 96 92 92 92
23 22 21 22 26 30 35 40 44 47 49 48 44 39 37 37 36 38 38 37 35 33 31 29 27 25 21 18 18 23 35 49 61 68 71 75 78 79 85 92 98 100 100 100 100 100 101 99 97 93 90 93
23 23 22 22 23 25 26 28 32 36 40 43 43 41 37 35 33 35 36 38 37 35 34 32 31 29 27 23 20 17 17 25 38 50 59 67 73 76 78 82 88 94 98 100 100 99 100 100 100 96 88 90
31 30 28 27 25 25 23 21 20 21 23 27 31 32 33 32 31 31 33 36 37 37 36 35 34 32 31 29 26 22 17 16 21 31 41 50 61 69 74 77 79 83 88 92 95 98 100 100 100 100 94 88
42 39 35 34 32 29 27 22 19 18 16 16 19 20 22 25 26 27 29 32 34 36 36 36 35 34 33 31 30 27 24 19 16 20 29 38 46 53 63 72 76 77 79 81 85 90 96 100 101 100 100 94
47 42 40 38 37 34 31 27 26 25 23 20 19 19 20 22 24 25 27 29 32 33 34 35 34 35 34 32 30 29 28 25 21 16 19 29 37 41 47 58 70 75 75 77 80 82 85 93 101 101 100 99
51 44 44 44 43 40 34 31 32 32 33 30 26 25 24 25 27 27 26 27 29 31 32 32 32 33 33 33 31 30 29 27 26 22 17 18 26 35 39 44 56 67 73 74 78 82 81 83 92 100 100 101
48 45 47 50 47 42 36 32 35 36 38 37 34 32 30 29 32 31 29 27 27 29 30 30 30 30 30 31 30 29 28 27 27 26 23 18 17 25 31 35 42 54 66 70 72 79 85 85 85 89 95 100
40 40 43 46 43 38 34 35 39 39 40 40 38 37 35 34 35 35 34 32 29 29 28 28 28 28 28 27 28 28 26 25 25 25 25 22 17 17 21 27 32 39 53 61 64 69 81 91 91 86 85 92
37 37 38 40 39 36 33 36 43 43 42 43 41 40 40 40 42 43 40 37 34 31 29 28 27 27 27 25 25 25 24 23 24 23 23 22 19 17 15 17 21 28 39 48 51 57 70 85 95 96 86 81
37 37 38 38 38 37 34 35 41 43 45 46 43 42 44 45 48 49 47 43 39 35 31 30 28 28 27 27 25 23 22 22 24 24 23 22 21 18 16 13 13 17 28 40 45 48 57 70 85 96 95 85
37 37 38 38 37 38 38 37 39 41 44 47 46 46 49 50 51 51 50 48 47 44 39 34 31 28 27 28 28 27 23 22 24 29 29 27 23 21 19 15 13 12 16 28 41 46 49 58 71 83 93 94
36 37 37 38 38 38 41 43 44 43 42 45 48 50 52 52 52 51 50 49 49 48 46 42 37 32 31 31 32 31 29 25 24 30 37 38 34 28 23 19 16 14 14 16 28 42 46 51 60 70 82 92
36 38 40 40 39 37 39 42 46 48 44 45 50 53 53 52 52 52 51 51 50 50 49 48 44 39 36 34 33 34 34 32 28 29 35 43 49 45 35 28 22 20 21 17 17 27 39 47 52 58 68 79
41 43 44 43 41 38 37 40 44 49 49 50 53 55 56 56 56 56 55 54 52 53 52 50 48 44 39 35 33 34 35 36 35 33 32 36 47 56 53 45 35 27 28 27 19 17 25 36 44 49 54 64
44 44 44 44 45 44 42 43 46 51 54 56 59 59 60 61 61 61 60 58 56 55 54 52 50 47 44 41 40 38 36 36 35 33 32 29 31 40 48 52 52 43 35 33 27 20 17 21 33 42 46 49
44 44 45 45 47 49 48 49 52 55 59 63 65 65 65 65 64 64 63 61 59 57 55 53 51 49 48 48 47 44 42 40 37 32 30 28 25 24 26 34 48 56 52 42 33 27 21 18 21 30 39 42
46 46 48 50 50 52 51 50 50 50 54 62 69 71 71 70 68 66 65 63 62 60 57 55 53 51 51 49 47 46 48 47 44 41 36 32 28 23 20 17 23 39 54 53 42 33 28 23 20 20 25 32
47 49 53 56 57 59 58 55 53 51 50 56 64 68 70 74 73 70 67 65 64 62 60 58 56 54 52 49 47 47 50 51 51 49 47 43 35 27 23 20 16 17 30 45 47 39 30 22 21 21 18 18
48 52 56 58 60 63 63 60 61 60 56 56 60 61 63 69 74 74 71 68 66 64 63 61 59 57 55 54 53 53 52 54 54 52 51 48 42 34 29 30 32 25 23 37 46 48 41 26 19 20 20 20
51 55 56 58 59 60 59 58 59 61 59 58 57 57 59 62 67 73 74 72 69 67 65 63 61 60 59 57 55 54 54 55 55 54 53 49 45 42 40 41 45 41 39 46 48 53 55 51 47 33 20 25
51 52 53 56 56 55 54 53 54 58 62 64 62 58 57 56 59 65 70 71 70 69 66 64 62 59 57 54 52 52 54 55 55 54 52 51 50 51 52 48 46 45 48 54 56 63 68 72 79 63 39 34
47 46 48 51 51 49 48 48 55 62 63 65 65 61 57 54 53 55 58 60 60 59 58 56 54 53 53 53 55 56 56 56 55 55 56 57 58 59 60 56 51 48 48 53 58 71 81 82 89 84 70 61
45 45 48 51 53 52 50 50 59 65 61 57 57 57 54 51 49 48 48 48 47 46 45 45 44 47 50 52 55 57 58 58 57 57 59 61 61 60 61 60 58 54 50 51 49 59 78 86 92 93 91 89
47 50 51 53 55 57 56 54 55 57 55 52 51 50 48 46 45 44 43 41 41 41 40 41 42 44 47 51 56 59 60 62 63 64 64 65 68 69 67 64 62 59 54 50 42 43 61 74 80 86 92 97

ECMWFFLT2_850_rhum_048.txt.gz
RH
30 29 30 29 29 29 30 30 29 29 29 29 30 29 28 27 28 31 33 39 44 49 53 61 72 80 83 85 88 92 93 92 92 96 97 94 91 90 94 100 100 100 101 100 100 100 101 100 99 98 96 96
27 25 24 22 22 22 22 24 24 25 26 26 26 26 25 25 24 25 28 31 38 45 48 54 63 74 81 83 84 86 87 86 88 94 97 97 94 86 84 92 97 99 101 100 100 100 100 100 100 98 93 94
19 18 16 14 14 15 16 18 19 20 21 22 22 23 23 23 23 22 23 24 29 37 43 49 54 64 75 81 81 80 81 81 83 89 92 95 96 90 82 83 88 94 99 100 100 100 101 100 100 99 92 89
12 12 12 11 11 12 14 16 18 18 19 20 20 21 21 21 22 22 21 21 22 27 35 42 48 55 64 75 79 78 77 78 79 83 86 89 93 95 89 82 81 86 92 97 100 100 101 100 100 101 94 88
12 12 13 13 12 12 14 16 17 18 19 20 20 20 20 21 21 21 21 21 20 21 26 32 40 48 55 64 74 77 76 77 78 78 80 83 86 93 95 89 83 83 86 89 96 99 100 100 100 101 95 89
14 15 16 16 15 14 15 17 17 18 20 20 21 21 21 21 21 21 20 20 21 21 21 24 28 35 45 55 65 73 75 76 77 77 76 78 80 84 91 93 89 87 86 85 89 94 99 101 100 101 97 91
16 17 18 19 18 19 19 20 20 20 23 24 24 24 24 24 24 25 24 21 21 23 23 21 22 25 32 42 54 64 71 75 77 77 75 76 77 78 82 89 91 89 88 87 86 87 93 99 100 101 99 95
17 19 20 22 22 23 24 24 24 25 26 28 30 30 30 30 30 31 30 27 23 23 25 22 21 22 24 29 39 52 63 70 75 77 75 74 75 75 76 79 85 85 86 89 89 86 85 91 97 101 101 99
18 21 22 24 25 26 28 28 27 28 29 31 33 33 34 34 34 34 33 32 28 25 26 26 23 23 24 23 28 37 49 60 68 74 75 73 72 74 74 73 77 78 78 84 90 91 87 85 88 95 100 101
21 24 26 27 28 29 30 31 31 31 32 32 33 33 33 33 34 34 33 33 31 29 28 28 27 24 26 25 25 29 37 47 56 66 72 72 70 70 72 72 72 71 69 73 82 90 93 90 86 87 92 97
23 25 29 31 32 32 33 32 33 33 33 33 33 32 32 32 33 34 34 33 33 33 31 31 31 28 27 28 27 27 31 37 44 53 63 69 69 68 69 70 70 67 62 63 72 81 91 95 92 87 86 90
24 27 30 32 33 34 34 34 34 34 34 33 32 32 32 33 34 36 36 35 35 37 37 35 35 32 28 29 30 29 29 33 37 42 50 59 64 66 67 68 69 68 60 57 62 70 79 90 95 94 90 87
24 27 30 31 33 34 34 34 34 33 32 31 32 34 36 36 37 38 38 37 38 41 43 39 36 34 30 30 32 31 30 30 32 35 39 46 53 59 63 65 66 67 63 55 55 61 67 76 88 95 97 93
25 27 30 32 33 33 33 32 31 30 31 33 35 37 39 40 39 39 40 41 42 44 46 42 37 37 35 32 31 33 32 31 32 31 33 36 43 48 54 60 62 64 65 59 52 54 58 62 73 86 95 98
26 29 31 32 32 32 32 31 31 32 34 37 39 39 40 41 40 40 40 42 44 44 46 45 42 40 40 37 33 34 36 35 33 32 31 29 33 38 43 50 55 57 61 62 55 49 50 52 59 71 84 93
26 29 30 32 33 33 34 35 36 37 37 37 38 38 39 41 42 41 42 44 46 47 48 49 47 44 43 42 38 35 37 39 37 35 33 29 27 30 34 39 45 49 53 59 59 50 45 44 47 55 68 80
24 28 31 33 35 37 38 38 39 37 36 36 35 36 37 43 47 46 46 47 49 52 53 52 51 50 47 46 45 40 37 40 40 37 35 33 27 24 26 30 34 40 43 50 57 55 46 41 41 43 50 64
24 29 32 35 36 37 38 37 37 36 35 35 35 36 37 46 54 54 51 52 53 55 56 56 54 53 51 49 49 47 42 39 41 41 39 37 33 27 23 25 26 30 34 39 47 54 51 44 40 38 38 45
26 31 33 34 35 36 36 36 36 36 36 35 35 36 38 46 57 60 57 56 57 57 58 57 56 55 55 53 51 52 50 44 43 44 43 42 41 36 28 25 24 24 26 29 35 45 52 50 44 41 36 34
28 31 33 34 34 35 35 35 36 36 36 36 35 36 37 42 52 60 62 60 60 60 60 59 59 58 57 57 55 55 56 53 49 46 46 45 45 44 38 31 27 26 25 24 25 30 41 49 49 46 41 34
29 32 34 34 34 34 34 35 35 35 36 36 35 35 37 39 43 52 59 63 64 64 64 62 61 61 60 60 60 58 58 58 56 52 48 46 46 47 45 40 33 29 27 23 22 22 28 38 46 49 47 42
31 33 34 34 34 34 33 33 34 34 35 34 34 33 35 37 38 43 50 58 63 65 67 67 66 64 64 63 63 62 60 60 61 58 54 49 47 46 46 45 40 33 29 27 23 19 19 24 34 43 46 46
31 33 34 34 34 33 33 32 32 33 34 33 33 32 33 35 36 38 42 49 55 60 63 66 69 69 67 66 65 64 63 62 62 63 61 55 49 44 43 44 44 39 33 29 25 21 18 17 22 31 39 44
32 33 34 34 33 33 32 32 32 32 34 34 32 33 33 34 35 36 38 43 48 52 55 58 63 68 70 69 68 67 67 66 65 65 64 61 53 43 39 38 39 39 35 29 26 23 18 15 15 19 27 34
32 34 35 34 34 33 31 31 32 32 33 34 33 34 35 34 34 35 37 42 46 49 51 52 54 59 65 68 69 68 68 66 64 62 59 56 50 42 37 34 33 34 33 30 28 24 20 16 14 15 19 25
32 34 36 35 35 35 33 32 33 33 33 34 33 34 36 35 34 35 37 41 46 48 49 51 51 52 57 61 64 64 62 59 55 51 48 44 41 39 36 33 33 33 34 36 36 32 25 18 16 18 21 24
32 34 35 36 37 37 35 33 34 35 35 34 33 35 36 35 34 35 37 40 44 48 49 50 51 51 51 53 55 56 53 49 45 42 40 39 38 37 37 36 36 36 39 43 43 38 35 37 33 25 24 25
32 34 35 36 37 38 37 35 35 36 37 36 34 35 36 36 35 35 36 39 42 45 48 50 51 52 50 48 48 47 45 41 38 38 38 39 39 40 42 43 43 42 41 43 45 46 49 51 39 29 32 29
32 33 35 36 36 38 38 36 36 36 36 36 35 35 36 37 37 37 37 38 40 41 44 46 48 48 46 44 43 41 39 38 37 39 40 42 42 43 46 48 49 48 46 46 48 55 62 61 55 60 61 39
32 34 34 36 36 38 38 37 36 36 36 35 34 35 35 38 39 39 40 39 40 41 41 42 43 43 43 42 41 40 40 40 41 41 41 43 44 45 47 50 52 52 57 60 56 59 69 77 82 85 74 50
31 34 35 37 38 38 39 38 36 36 36 34 34 35 36 39 41 42 43 42 43 43 43 43 43 44 44 44 44 44 44 45 45 45 45 46 46 46 47 50 53 56 63 68 66 66 70 76 84 87 84 78

ECMWFFLT2_850_rhum_051.txt.gz
RH
9 9 10 10 10 10 9 10 11 11 10 10 10 11 12 13 14 14 16 16 17 18 19 20 21 24 27 32 41 52 63 73 81 85 85 87 93 93 92 93 89 85 87 91 96 100 100 99 100 101 100 99
10 10 11 12 12 11 12 11 11 11 10 10 10 10 10 11 12 12 14 14 16 17 17 18 18 19 22 26 32 44 57 65 70 76 81 84 89 91 88 89 90 89 91 92 92 96 100 100 100 100 101 99
10 12 12 14 14 14 14 14 14 13 12 12 11 10 11 10 11 11 12 13 13 15 16 16 16 17 18 22 24 31 44 55 63 69 75 79 83 87 86 86 90 92 94 95 93 92 97 100 100 100 101 99
10 12 14 15 15 16 16 16 17 17 16 15 14 13 13 12 12 11 11 12 13 13 15 16 16 16 15 18 20 22 29 42 55 64 70 73 77 82 83 84 88 92 93 96 96 93 93 96 100 100 100 100
10 13 15 16 16 16 17 18 19 20 20 18 18 17 17 17 15 15 14 14 14 15 15 16 17 17 15 15 17 19 20 29 42 55 65 68 73 78 80 83 85 90 92 94 96 96 93 92 95 99 101 100
9 13 16 17 17 17 17 20 21 21 22 21 20 20 20 20 20 20 19 19 19 19 19 19 19 19 17 14 14 17 18 21 30 43 56 62 68 74 78 81 83 87 90 92 94 96 96 92 91 94 100 101
9 14 17 17 18 18 19 20 22 23 22 22 21 21 22 22 23 23 23 23 24 24 24 24 24 22 19 16 13 14 17 19 22 31 44 55 63 70 75 79 82 85 88 91 92 93 96 95 93 91 94 99
8 14 17 18 19 19 20 21 22 23 23 22 22 21 22 23 24 24 25 25 26 27 28 28 28 27 24 20 15 13 16 18 20 24 31 44 55 65 71 76 80 84 86 88 90 92 94 94 94 93 92 94
7 14 17 18 20 21 21 23 23 24 23 23 23 23 23 23 24 25 26 27 28 29 31 32 32 32 30 25 19 16 17 18 19 21 25 33 44 57 66 72 77 82 84 85 87 89 92 93 93 94 95 93
7 14 18 19 21 22 22 23 24 23 23 23 22 23 23 23 25 26 28 29 30 31 33 35 36 37 36 32 26 19 19 21 21 21 23 27 34 46 58 66 73 79 83 84 84 85 88 91 91 92 95 96
6 13 17 19 21 22 23 23 23 22 21 21 21 21 23 24 26 28 29 30 32 33 34 36 38 40 40 38 33 26 22 24 25 23 23 25 29 38 49 59 66 74 81 84 84 84 85 88 89 90 92 95
5 11 16 18 20 22 23 23 23 22 22 22 22 23 24 25 26 27 29 30 32 33 34 37 40 42 44 43 40 33 27 26 30 28 25 25 27 32 41 50 58 67 75 82 84 83 84 85 86 88 89 92
4 8 14 17 19 21 23 24 24 23 24 24 25 26 26 26 26 26 27 29 31 32 34 37 42 45 47 48 45 41 33 29 32 34 31 28 27 29 35 42 49 57 66 75 81 83 83 84 85 85 86 89
4 7 13 17 18 20 22 23 24 25 25 26 27 27 27 27 27 27 27 29 32 33 35 39 44 48 50 51 49 46 41 34 34 38 38 33 31 30 32 36 41 47 55 65 73 79 82 84 84 84 84 85
4 6 11 16 18 20 21 22 24 25 26 27 27 28 28 28 28 27 28 31 35 38 39 43 48 51 53 54 52 50 46 41 37 39 42 40 36 35 34 35 37 39 44 52 62 71 78 82 84 84 83 83
5 5 10 15 18 20 21 22 24 25 26 27 28 28 28 29 29 28 28 31 37 43 46 48 52 54 56 56 55 52 50 46 42 40 43 45 42 39 37 36 37 37 38 42 49 58 67 75 82 84 83 82
6 5 9 15 18 21 22 23 25 26 27 27 28 28 28 30 30 29 29 31 35 43 50 54 56 58 58 57 56 54 53 50 47 43 43 47 47 43 40 38 37 36 35 35 39 46 54 63 73 80 82 82
7 5 8 15 19 21 24 25 26 27 28 28 27 27 28 29 31 30 30 31 34 40 50 57 60 60 60 59 57 56 55 53 51 48 45 47 50 49 45 40 37 37 35 33 33 36 42 50 60 71 78 81
8 5 7 15 19 22 25 27 28 29 29 29 27 27 27 28 30 31 31 31 32 36 45 55 61 62 61 60 59 58 58 57 55 52 47 47 50 52 50 45 40 37 35 32 31 31 33 38 46 57 68 76
9 5 7 14 20 21 24 28 29 30 30 29 28 27 26 27 29 31 31 32 32 34 38 47 59 65 64 63 62 61 61 60 59 57 52 49 50 52 53 51 45 40 37 32 28 27 28 29 33 42 54 65
10 6 6 13 20 22 24 28 30 31 31 30 28 27 26 27 28 30 31 32 32 33 35 40 51 60 64 65 65 65 65 63 62 61 58 53 50 52 54 53 50 43 36 31 27 25 24 24 25 29 38 50
11 7 5 12 20 22 24 28 30 31 32 31 29 27 27 27 28 30 31 31 32 32 34 36 42 51 57 61 64 66 67 67 66 64 63 59 53 52 53 52 47 40 35 32 28 25 22 21 21 22 25 33
12 7 5 11 19 22 23 27 30 31 33 32 29 27 27 27 28 29 30 31 31 32 33 35 38 43 49 54 58 60 63 65 66 66 66 64 59 52 49 45 40 35 33 31 30 28 25 21 19 19 19 21
13 8 5 10 18 21 23 27 30 31 33 32 30 28 27 27 29 29 30 30 31 32 33 35 37 39 43 48 52 54 56 57 59 62 63 62 60 53 43 36 34 33 33 33 33 31 26 23 20 18 17 17
14 10 6 9 17 21 23 26 28 30 32 33 31 29 28 28 29 30 30 30 30 32 33 35 35 36 40 44 48 50 52 52 52 53 55 55 54 47 38 32 31 34 36 36 35 32 28 25 22 24 24 17
15 11 6 7 15 21 23 25 28 30 31 33 32 30 29 29 30 30 30 30 31 31 33 34 34 35 38 41 44 47 48 49 49 48 48 47 44 38 35 34 34 34 37 38 38 36 33 29 27 34 40 37
17 11 6 5 13 21 23 24 27 29 31 33 33 32 30 30 30 32 31 31 31 31 31 33 33 33 36 38 41 43 45 46 47 45 43 40 37 36 36 37 37 36 38 39 40 41 46 49 41 33 34 39
17 12 7 5 10 20 23 24 27 29 31 34 34 32 31 31 31 32 32 32 32 32 32 32 32 32 33 36 38 40 42 42 43 42 40 39 38 39 38 38 38 38 40 40 43 52 59 60 51 47 49 37
17 13 8 4 8 18 22 24 27 30 32 34 35 33 31 31 32 32 34 34 35 35 35 34 34 34 34 36 38 40 41 42 43 43 43 43 43 43 43 41 40 39 41 41 45 55 65 72 75 80 80 52
18 14 9 4 7 16 23 24 25 30 34 36 36 34 31 31 31 33 35 35 37 37 38 37 37 37 37 38 40 41 43 45 46 47 47 48 49 50 49 47 44 41 42 42 44 50 60 78 90 90 85 74
20 15 11 5 6 14 22 24 25 29 34 36 37 35 32 31 31 33 36 37 38 39 40 40 39 39 39 40 42 44 46 48 50 51 52 54 55 56 55 53 49 46 43 42 45 48 51 61 69 73 81 90

ECMWFFLT2_850_rhum_057.txt.gz
RH
15 11 8 4 3 2 5 8 10 12 12 12 11 11 11 11 11 10 9 7 6 6 5 5 5 6 8 10 15 22 16 10 9 8 8 5 5 6 6 6 5 5 5 5 6 6 9 13 18 24 30 37
19 17 13 10 6 4 3 4 8 11 12 13 13 12 12 11 10 9 8 6 5 5 5 5 5 5 8 10 12 14 12 11 11 11 11 9 8 7 7 7 6 6 5 5 5 6 9 12 14 19 26 33
23 21 19 15 10 7 4 2 4 7 11 13 14 13 12 11 10 8 6 6 7 6 6 6 5 6 8 10 11 10 11 11 11 13 12 12 12 10 9 8 8 8 6 6 5 6 8 11 14 15 23 32
24 23 22 19 14 11 8 5 2 3 7 11 13 13 13 12 9 8 7 8 9 7 6 6 6 7 9 10 10 10 10 11 11 13 13 13 13 13 12 10 9 9 8 7 5 6 7 10 16 17 20 32
24 24 23 21 19 17 14 11 6 2 3 6 10 12 13 13 12 11 10 10 10 8 7 6 6 6 8 9 10 10 9 10 11 11 13 14 14 14 14 13 11 10 9 8 7 6 7 9 16 23 22 30
24 25 25 25 23 21 19 16 13 8 3 2 6 10 13 14 15 14 11 11 10 7 6 6 6 6 7 9 8 8 8 9 9 9 11 13 14 15 14 14 13 12 10 9 9 7 7 8 12 24 30 35
24 25 25 26 25 23 22 21 19 15 8 2 3 6 11 14 15 15 12 11 9 7 7 8 9 8 8 8 8 8 9 10 10 10 11 12 13 14 15 14 14 13 12 10 10 8 7 8 9 18 32 43
24 24 25 26 26 26 24 23 22 20 15 6 2 3 8 13 15 15 14 12 10 9 9 11 12 11 11 11 11 11 11 12 14 14 15 17 15 15 17 16 15 14 14 12 10 10 8 8 8 11 25 43
23 23 24 25 26 26 26 25 24 23 21 13 5 2 4 10 14 16 16 14 12 11 11 12 13 15 18 17 15 14 15 18 20 17 18 24 23 19 19 17 17 16 15 14 12 11 9 8 9 9 16 34
23 23 23 24 25 27 27 26 25 25 24 20 11 3 2 6 11 16 17 17 15 13 12 12 14 17 21 20 17 17 19 21 21 19 20 26 29 25 21 19 18 17 16 15 14 12 11 9 9 9 10 21
23 23 24 24 24 25 27 26 26 26 25 24 18 7 2 3 8 15 18 19 17 15 13 13 15 17 20 19 18 21 23 21 20 23 24 26 30 29 27 25 21 21 22 18 16 14 13 11 9 10 10 12
23 24 24 24 24 24 25 27 27 27 26 26 23 13 4 2 6 13 17 19 19 17 15 14 14 16 19 19 20 25 25 23 23 26 29 29 31 33 33 31 27 30 31 28 23 19 16 13 11 10 11 10
23 24 24 24 24 25 25 26 27 27 27 26 25 20 8 2 5 11 16 19 20 19 16 15 15 16 18 20 22 26 26 27 29 28 30 30 32 35 36 33 33 36 36 36 34 30 23 16 14 12 11 11
24 24 25 25 25 25 25 25 27 28 27 27 27 24 14 4 3 9 14 19 21 20 18 16 16 17 20 22 23 27 28 28 30 30 29 28 29 32 33 30 30 35 39 41 42 41 35 23 17 15 13 12
24 25 24 25 25 25 25 25 26 28 28 28 27 27 20 8 2 6 12 17 21 21 19 17 17 18 20 21 22 26 30 29 29 28 25 25 27 30 33 32 32 36 42 46 47 49 46 33 21 18 17 14
23 24 25 25 25 25 26 25 25 27 28 28 28 27 24 14 3 4 10 15 20 22 21 19 17 18 17 19 20 23 29 30 26 23 24 29 34 37 39 40 42 43 47 54 55 53 52 42 27 20 19 16
23 24 24 25 25 25 26 25 25 26 27 28 28 28 26 20 8 3 7 13 18 22 22 20 18 18 17 19 21 23 27 28 27 30 33 36 39 45 50 51 53 55 56 61 62 57 54 47 32 22 20 17
23 24 24 25 25 25 25 25 26 26 27 27 28 29 27 23 13 4 5 11 17 20 23 22 20 19 19 21 23 25 27 28 31 35 36 36 37 47 57 57 58 64 64 65 67 61 58 50 33 23 20 17
23 24 24 25 25 25 26 25 26 26 26 27 28 29 28 26 18 6 4 10 15 19 23 23 21 21 21 23 25 25 26 27 30 33 34 33 39 49 54 53 59 69 69 67 68 65 64 52 31 23 21 17
23 24 24 25 25 25 26 25 26 26 26 28 29 30 29 27 22 10 4 8 14 18 23 25 23 21 22 24 25 24 23 25 28 32 33 34 40 46 49 53 61 68 69 68 69 69 63 45 27 23 22 19
23 23 24 25 25 25 25 26 26 26 27 28 28 29 30 28 25 15 5 6 13 17 22 25 24 22 22 23 23 23 23 24 26 31 33 35 37 42 51 57 60 65 66 67 67 61 47 32 26 25 21 21
23 23 24 24 25 25 25 26 26 26 26 28 28 29 30 29 26 19 8 5 10 16 20 24 25 22 22 22 22 23 22 23 25 28 30 33 34 37 47 52 54 57 59 65 65 46 31 27 26 25 23 22
25 24 25 24 25 25 25 26 25 26 26 28 28 29 30 30 28 22 11 5 8 14 19 23 26 24 22 22 22 22 22 23 25 28 29 32 34 33 37 43 43 44 55 69 59 35 31 33 26 25 25 22
27 26 26 26 26 26 26 26 26 26 27 28 28 28 30 30 29 25 14 6 6 12 17 23 26 26 24 23 23 23 23 24 26 30 31 32 32 30 31 35 35 45 63 65 46 36 47 46 32 31 30 26
31 29 28 28 28 28 28 28 27 27 27 28 28 28 29 30 30 26 17 9 5 10 17 22 27 27 25 24 24 24 24 24 25 27 28 28 28 29 30 30 37 53 62 56 47 51 56 47 41 47 46 38
35 33 32 31 30 30 31 30 30 29 29 29 28 28 28 29 31 27 20 12 6 8 15 21 27 28 26 25 25 25 25 25 26 26 27 28 27 29 32 32 40 49 51 54 58 59 56 49 47 53 56 56
38 37 36 35 34 33 34 33 33 32 31 31 29 29 28 29 30 28 22 15 8 7 14 20 26 29 28 26 27 27 28 27 27 28 28 29 29 30 35 36 41 49 51 54 55 56 59 54 48 45 52 63
41 40 39 38 37 36 36 35 35 34 32 32 31 30 29 29 30 28 23 18 11 6 11 19 24 30 30 28 29 29 29 29 29 29 30 31 33 34 36 40 47 56 57 52 51 60 65 56 50 47 51 57
45 43 41 41 40 39 38 37 36 35 33 32 31 30 30 29 29 29 25 19 13 7 9 17 23 28 31 29 30 31 30 31 31 32 33 34 36 37 39 42 47 52 55 53 51 59 65 58 55 58 59 54
51 47 44 43 42 41 40 39 38 36 35 34 33 32 31 30 29 29 26 20 14 9 8 15 22 27 31 30 30 33 33 33 33 34 35 36 38 40 42 43 45 45 50 56 53 53 57 56 60 70 68 56
55 53 50 46 44 44 43 42 40 39 38 36 35 34 32 31 30 29 27 21 15 10 8 13 21 26 31 32 31 33 35 34 34 35 36 38 39 41 44 44 45 46 49 54 55 55 58 59 66 75 69 58

ECMWFFLT2_850_rhum_063.txt.gz
RH
19 19 19 19 19 20 20 20 21 21 21 21 20 18 16 13 10 7 4 3 3 5 5 5 4 3 3 3 3 3 4 4 3 3 3 3 3 3 3 3 4 3 3 3 3 3 3 3 3 3 2 1
19 19 20 20 20 20 20 20 21 21 22 22 22 22 21 19 17 14 10 7 5 3 3 5 6 5 4 3 3 3 4 4 4 4 3 3 3 3 4 4 4 4 4 4 3 3 3 3 3 3 3 3
19 19 20 20 20 21 21 21 21 22 22 22 23 23 23 23 22 20 17 14 9 5 3 3 5 7 6 4 4 3 3 4 4 4 4 4 4 4 4 4 4 5 5 5 4 4 4 4 4 4 3 3
19 20 20 20 21 21 21 21 21 22 22 23 23 24 24 24 25 24 22 20 15 11 7 4 4 5 7 7 5 4 4 3 4 4 4 4 4 4 4 4 4 5 5 5 5 4 4 4 4 4 4 4
19 19 20 20 20 20 21 21 22 22 22 23 23 23 24 25 25 25 25 24 21 18 14 10 6 4 5 7 7 6 5 4 4 3 4 4 4 4 4 4 4 4 5 5 6 5 5 5 5 5 4 4
19 20 20 20 20 20 21 21 22 22 22 23 23 23 24 24 25 25 26 26 25 24 21 17 12 7 5 5 7 8 7 5 4 4 4 4 4 4 4 4 4 4 4 5 5 5 6 6 6 6 5 5
19 20 20 20 20 20 20 21 21 22 23 23 23 24 24 24 24 25 25 26 27 27 25 22 17 12 8 5 6 7 8 8 6 5 4 4 4 5 5 5 5 4 4 5 5 5 5 6 6 6 6 6
20 20 20 21 20 21 21 21 22 22 23 23 24 24 24 24 24 24 24 25 26 28 27 26 22 18 13 9 6 6 8 9 9 7 5 4 4 5 5 5 5 5 5 5 5 5 5 5 5 6 6 7
21 21 21 21 21 22 22 22 22 23 23 23 24 24 24 24 24 24 24 25 25 26 28 28 27 23 19 14 9 7 7 9 10 9 7 6 4 5 5 5 6 6 6 5 6 6 6 6 6 6 6 6
22 22 22 22 22 23 22 23 23 23 23 24 24 24 24 24 24 24 24 24 24 25 26 28 28 27 24 19 12 8 7 8 10 11 10 7 6 5 6 7 8 8 7 7 7 7 7 7 7 7 6 6
23 23 24 23 24 24 23 24 24 24 24 24 24 24 24 25 24 25 24 25 24 25 25 26 27 28 28 24 17 11 7 6 9 12 12 10 8 6 7 8 9 10 10 9 9 8 8 8 8 8 7 7
24 24 24 24 24 24 25 25 24 24 25 24 25 24 25 25 25 25 25 25 25 25 25 25 26 27 28 28 23 16 11 8 8 10 12 12 10 8 8 9 11 12 11 11 11 10 10 9 9 8 8 7
24 24 24 25 25 25 26 25 25 25 26 25 25 25 25 26 26 26 26 26 26 25 25 25 25 26 27 28 27 24 18 12 9 9 10 13 12 10 9 10 11 12 12 11 12 11 10 10 9 9 8 8
25 25 25 26 26 27 27 27 28 28 27 27 26 26 27 27 26 26 26 27 27 26 26 26 25 26 26 27 28 28 25 17 12 9 9 11 13 12 10 9 10 11 13 12 11 12 11 11 10 10 9 8
27 27 27 28 29 30 30 30 30 30 29 29 28 29 29 29 28 28 27 27 28 28 27 27 26 26 26 27 27 28 28 23 16 11 9 10 12 13 11 10 10 11 12 11 12 12 12 12 11 11 10 9
29 30 30 31 32 32 33 33 33 33 32 32 32 32 32 32 31 30 30 29 29 29 29 28 27 27 27 27 28 27 27 27 23 17 12 9 11 14 13 11 10 11 12 12 12 13 13 13 12 12 11 10
31 32 33 34 35 35 36 36 36 36 35 35 35 35 35 35 34 33 33 32 32 31 31 30 29 28 27 28 29 28 27 27 26 23 17 11 10 13 14 13 11 11 12 12 13 13 13 13 13 12 12 12
35 36 37 37 38 39 39 39 39 38 38 38 38 38 38 37 37 36 35 35 34 34 33 32 31 29 29 29 29 29 28 26 25 24 20 13 10 12 15 15 13 12 12 12 13 13 13 13 13 12 13 14
40 41 42 42 42 43 42 42 41 41 40 40 40 40 40 39 39 38 38 37 37 37 36 34 34 32 31 30 29 30 28 26 23 21 19 14 11 13 16 16 15 14 12 13 13 13 14 13 13 13 13 14
43 44 46 46 45 45 45 45 44 44 43 42 43 42 41 41 41 40 40 40 39 39 38 37 36 35 33 32 30 30 29 26 23 19 17 15 13 14 16 17 16 15 14 13 14 14 14 13 13 13 13 15
41 46 48 48 47 47 47 47 46 45 45 45 45 44 44 43 42 42 41 41 41 40 40 39 38 37 35 34 32 30 29 26 22 17 16 16 15 15 17 18 17 16 15 14 14 14 14 13 13 13 14 16
42 48 51 50 48 48 49 49 49 48 48 48 48 47 46 46 45 45 43 43 42 41 41 40 39 39 37 36 34 32 30 28 24 18 14 16 17 16 17 19 18 17 16 15 15 15 15 14 14 14 15 16
47 51 54 53 50 50 52 53 54 54 54 54 53 54 53 52 51 50 49 48 47 45 43 42 41 40 39 38 37 35 33 31 27 20 14 14 17 18 17 19 19 19 17 16 16 15 15 14 14 15 15 16
47 53 55 54 52 52 53 55 57 56 56 57 57 56 54 52 51 50 50 49 49 49 48 47 45 43 41 40 39 37 36 34 31 24 16 13 16 18 18 18 19 20 19 18 17 16 15 16 15 15 16 17
42 46 49 48 46 48 48 49 51 49 49 52 52 50 48 46 46 46 45 45 46 47 48 49 49 48 45 42 40 39 37 36 34 29 20 13 15 19 19 19 19 21 21 21 20 17 16 16 16 17 17 19
41 42 43 41 39 40 41 40 42 43 44 48 50 49 47 46 45 45 46 45 45 45 45 46 47 50 49 45 42 39 38 37 35 32 23 15 14 18 21 21 21 22 23 23 22 22 22 18 16 18 21 23
46 46 46 46 43 41 40 38 39 40 41 46 49 49 48 47 47 48 48 47 47 46 45 45 45 47 47 47 44 41 39 37 35 33 26 18 15 18 22 23 22 23 24 24 25 30 34 28 24 22 22 26
55 54 53 54 52 49 48 46 45 44 44 45 46 46 46 46 46 48 49 49 49 48 47 46 45 46 46 46 46 44 42 39 37 34 29 22 17 18 22 24 24 24 25 25 27 33 38 39 41 35 27 27
61 62 62 62 59 56 55 52 51 51 50 48 47 46 45 44 43 46 48 50 51 50 49 48 46 46 46 46 47 46 45 43 39 35 32 28 23 20 22 25 27 27 27 27 28 33 37 41 46 43 36 34
57 62 65 67 64 61 57 53 50 51 53 53 53 52 51 50 46 44 47 50 52 52 50 49 48 48 47 47 48 47 47 45 43 39 36 34 30 23 21 28 33 30 28 29 30 33 35 36 41 43 43 43
49 52 57 62 64 63 60 56 52 51 54 55 55 56 56 57 53 47 46 47 49 51 50 49 48 48 48 48 48 48 48 48 47 45 41 37 34 29 23 29 36 33 30 32 33 36 36 34 38 42 45 48

ECMWFFLT2_850_rhum_066.txt.gz
RH
19 19 20 20 20 21 21 21 22 22 22 23 23 23 24 24 25 26 26 26 26 24 21 19 14 11 8 6 6 6 5 4 4 4 4 4 3 4 3 3 3 3 3 2 2 2 2 2 2 2 2 2
18 18 20 20 20 20 21 21 21 22 22 23 23 23 23 24 24 25 26 26 27 27 26 23 20 17 13 9 7 6 6 5 5 4 3 4 3 3 3 3 4 3 3 3 3 3 2 2 2 2 2 2
18 19 20 20 20 20 21 21 21 22 22 23 23 23 24 24 24 24 25 25 26 27 28 27 25 23 20 16 12 9 7 7 6 6 4 4 4 3 4 3 4 3 3 3 3 3 3 3 2 2 2 2
18 19 20 20 21 21 21 21 22 22 22 23 23 23 24 24 24 24 24 25 25 26 27 28 29 27 26 23 20 16 12 9 7 7 6 5 5 4 4 4 4 4 3 3 3 3 3 3 3 2 2 2
20 20 21 21 21 22 22 22 22 23 23 23 23 24 24 24 24 24 25 25 25 25 25 27 29 29 29 28 25 23 18 14 10 8 8 7 7 5 5 4 4 4 4 4 3 3 3 3 3 3 3 2
21 21 22 22 22 23 23 24 24 23 24 24 24 24 24 25 24 25 25 25 25 25 25 25 27 28 30 30 28 27 24 20 15 11 9 8 8 7 7 6 5 4 4 4 4 4 3 3 3 3 3 3
22 23 23 24 24 25 25 25 25 25 25 25 25 25 25 25 25 25 25 26 26 25 25 25 26 26 28 29 30 30 28 26 22 17 13 10 9 9 9 7 6 5 5 4 4 4 3 3 3 3 3 3
23 24 24 25 25 25 26 26 26 26 26 26 26 26 25 26 26 26 26 26 26 26 26 25 25 25 26 27 29 30 31 31 28 25 19 14 12 10 10 9 8 7 6 5 4 4 4 4 3 3 3 3
24 25 25 25 26 26 27 27 27 27 27 27 27 27 27 26 27 27 27 27 27 27 27 27 26 25 26 26 27 28 30 32 32 31 27 21 16 13 11 11 10 9 7 6 5 5 4 4 4 4 4 3
25 25 26 26 27 27 28 29 29 29 29 29 29 29 29 28 29 28 28 28 27 28 28 28 27 27 26 26 26 27 27 29 31 33 32 29 23 17 14 12 11 10 9 8 6 6 5 5 5 4 4 4
26 26 27 28 29 29 30 31 31 32 32 32 32 32 32 32 32 32 30 30 29 30 29 29 29 29 28 27 27 27 27 27 28 31 33 34 30 22 16 13 12 11 10 9 7 6 5 5 5 5 5 5
27 28 29 30 30 31 32 33 33 34 35 35 35 35 35 35 35 35 33 32 32 32 31 31 31 30 30 29 28 28 28 28 28 28 30 33 33 27 19 14 12 12 11 10 9 7 6 6 5 5 6 5
29 30 31 32 32 33 33 34 35 36 37 37 38 38 38 38 38 38 37 36 35 34 33 33 33 32 32 31 30 30 29 29 29 28 27 29 31 30 23 17 12 12 12 11 10 8 7 6 6 6 6 6
31 32 32 33 33 34 35 36 38 39 40 40 40 40 40 40 40 40 39 38 38 38 36 35 35 34 34 33 33 32 30 30 30 28 27 25 27 28 25 22 15 12 13 12 11 10 9 7 7 6 6 6
33 34 34 35 35 36 38 39 40 41 42 42 42 42 42 42 41 41 41 40 40 39 38 37 36 35 35 35 34 34 32 31 31 30 28 25 24 24 24 24 19 14 14 14 12 11 10 8 7 7 6 7
34 36 37 38 39 40 41 41 42 43 44 45 44 44 44 43 43 43 42 42 42 41 41 39 38 38 37 36 36 35 34 32 31 30 29 26 23 22 23 25 22 18 17 15 14 13 12 10 9 8 8 7
37 39 40 41 42 43 43 43 44 45 46 47 46 46 45 46 45 45 45 44 44 43 42 42 41 40 38 39 38 36 35 33 32 31 31 28 25 23 21 23 24 21 20 19 16 14 13 12 11 10 9 8
37 37 39 42 44 45 45 45 46 47 48 49 48 48 48 48 48 47 48 47 47 47 47 46 45 43 41 40 39 38 37 35 34 33 32 30 27 25 21 20 22 22 24 23 19 15 14 14 12 11 10 10
29 32 36 41 44 46 47 47 47 49 51 51 51 51 51 51 51 52 52 51 51 51 50 50 50 50 47 44 41 40 39 38 37 35 33 32 31 29 25 21 19 22 25 26 24 18 15 14 13 12 12 11
23 27 33 40 45 48 49 48 49 51 53 55 54 54 55 55 55 54 52 51 50 49 47 47 47 49 49 48 45 42 41 40 38 38 36 35 33 32 29 24 19 19 23 26 26 22 17 15 14 13 13 12
25 26 32 40 46 48 49 49 50 53 54 54 54 54 55 55 52 48 45 44 44 44 43 43 43 44 47 47 47 46 45 43 41 40 39 37 36 35 32 27 22 18 20 24 25 24 20 17 16 15 14 13
33 31 33 38 41 43 45 47 49 50 50 50 51 51 50 48 45 41 39 39 41 42 40 42 42 42 44 45 46 47 47 47 45 42 40 39 37 36 34 30 25 18 16 20 23 24 24 21 17 15 15 14
35 34 33 34 34 35 36 38 39 39 40 42 42 42 42 40 38 38 37 36 38 40 40 40 41 42 44 45 45 46 47 48 47 45 43 41 39 38 36 33 28 20 15 18 21 23 25 24 21 18 16 15
33 33 34 34 32 32 31 31 32 33 34 36 36 36 36 35 34 35 36 36 36 35 36 38 41 43 45 46 47 46 46 47 48 48 47 44 42 39 37 35 30 22 17 18 21 23 25 26 24 21 17 15
38 38 39 39 37 34 31 30 32 33 34 36 38 39 41 40 41 42 43 44 41 37 34 34 38 44 46 47 48 47 47 47 48 49 49 48 47 43 39 37 33 26 21 22 23 22 24 25 27 25 21 17
47 47 47 46 44 42 38 37 37 39 39 40 40 40 44 48 49 50 51 52 51 47 40 35 36 40 45 48 48 48 47 47 48 49 50 50 49 47 44 39 35 30 25 26 24 23 26 27 27 29 26 23
51 52 54 54 53 52 50 48 48 49 49 49 47 43 42 47 51 51 53 55 56 55 50 43 38 37 40 44 46 47 47 46 47 48 49 50 50 50 49 45 40 35 31 29 27 30 35 34 33 33 30 27
56 57 58 59 58 58 57 56 56 56 55 55 54 50 44 43 47 51 55 58 59 59 58 54 48 43 40 40 42 45 46 46 46 47 48 49 50 50 51 51 47 42 38 34 32 36 41 42 43 43 35 30
63 63 63 63 62 61 58 57 57 58 58 58 56 55 51 47 49 55 59 61 60 60 60 59 57 53 49 46 44 44 45 45 45 46 47 48 50 50 50 51 50 48 44 40 37 38 41 43 45 43 39 35
63 63 61 58 58 60 60 58 57 56 58 59 59 59 57 56 55 57 61 62 62 61 61 61 60 59 56 54 52 50 48 46 45 43 44 48 49 51 51 50 50 49 50 48 43 39 38 39 40 39 41 46
45 43 39 36 37 46 54 59 60 60 60 61 62 62 61 61 59 59 62 63 63 62 62 62 62 62 60 58 57 56 55 52 50 46 44 46 48 50 51 51 51 50 52 53 50 46 40 37 39 40 44 52

ECMWFFLT2_850_rhum_069.txt.gz
RH
18 18 19 20 20 21 21 22 22 22 22 23 23 24 24 24 25 24 25 25 25 25 26 27 28 29 28 27 23 18 16 13 11 14 14 8 6 7 5 4 4 4 5 4 4 3 3 3 3 2 2 2
18 18 19 20 20 21 22 22 23 23 23 23 24 24 24 24 25 24 25 25 25 25 25 25 26 28 29 30 29 26 23 19 16 17 16 9 8 9 7 6 5 4 5 5 4 4 3 3 3 2 3 2
19 20 20 21 21 22 23 24 24 24 25 25 25 25 25 25 25 25 25 25 25 25 25 25 25 26 28 29 31 31 29 27 22 19 15 11 10 10 9 9 7 6 5 4 4 4 4 3 3 3 3 2
20 21 21 22 23 23 24 25 25 26 26 26 26 26 26 26 26 26 26 26 26 26 26 26 26 25 26 27 29 30 31 32 30 26 22 17 14 12 12 12 10 8 6 5 4 4 4 4 4 3 3 3
22 22 23 23 24 25 25 26 26 26 27 27 27 27 27 27 27 27 27 27 26 27 27 26 26 26 26 26 26 28 29 31 32 32 30 25 20 16 15 15 14 11 9 8 6 5 5 4 4 4 3 3
23 23 24 25 25 26 26 27 27 27 28 28 29 29 29 28 28 28 28 28 28 27 27 27 27 27 26 26 26 26 27 28 30 32 34 32 28 23 20 18 16 14 13 10 8 7 6 5 5 4 4 4
23 25 25 26 27 27 27 28 29 29 30 31 31 31 31 31 30 30 30 29 29 29 29 28 28 28 28 27 27 26 26 26 27 29 32 34 34 32 28 23 19 17 15 13 12 10 8 7 6 5 5 4
24 25 26 27 27 28 30 30 31 32 32 34 34 34 34 34 33 33 33 32 31 31 31 30 30 30 29 28 28 27 27 26 27 27 28 31 33 36 36 32 26 21 18 16 15 13 11 10 8 7 6 5
26 26 27 28 29 30 31 32 33 33 35 36 37 38 38 37 37 36 36 35 34 34 33 32 32 31 30 30 29 28 27 27 27 27 27 29 30 32 36 38 37 31 26 22 19 16 14 13 11 9 8 7
27 28 29 30 31 32 32 34 34 35 36 38 39 40 40 40 40 39 39 38 37 37 36 35 34 33 32 31 30 30 29 28 27 27 27 28 28 29 31 35 39 39 37 32 26 21 17 15 14 11 10 9
29 29 31 32 32 33 34 35 35 36 37 39 41 41 42 42 42 42 41 41 40 39 39 38 37 36 34 33 32 32 31 30 28 28 28 27 28 28 29 30 33 38 41 40 36 31 24 19 16 13 12 10
30 31 32 33 34 34 35 36 36 38 39 40 42 43 44 44 44 44 43 43 42 41 41 40 40 39 37 35 34 33 33 32 30 29 28 28 28 28 29 28 29 32 36 40 41 39 34 27 21 17 14 12
32 33 34 34 35 36 36 37 38 39 41 42 43 45 46 46 45 45 45 45 44 44 44 43 42 41 40 38 36 36 35 34 32 31 30 29 29 28 29 29 28 29 30 34 38 41 40 35 30 24 19 15
34 35 35 36 37 38 38 39 41 42 43 44 46 47 47 47 47 46 46 46 46 46 46 46 45 44 43 42 40 39 38 37 35 33 32 31 30 29 29 29 29 28 28 30 32 37 39 39 37 32 26 21
36 37 37 38 38 39 40 41 42 43 45 46 47 48 49 49 48 48 47 47 48 48 49 48 49 49 48 47 44 43 41 39 38 36 35 33 32 31 30 29 29 28 27 28 28 31 35 38 40 38 32 27
33 34 34 36 37 39 40 41 43 44 45 47 48 49 50 50 50 50 49 49 50 51 52 53 53 52 51 50 48 46 44 42 40 39 37 36 35 33 32 30 30 29 28 28 27 27 30 34 38 39 37 33
25 25 27 29 32 36 38 41 43 44 45 46 48 49 51 53 53 52 52 53 54 54 53 52 51 49 47 47 48 48 47 45 43 41 39 38 37 36 34 33 31 31 29 28 27 26 27 29 33 36 38 38
21 22 23 25 27 31 35 40 44 45 46 45 47 50 52 53 53 54 55 55 53 51 47 45 43 40 41 43 45 48 48 48 47 45 43 40 39 38 37 35 34 33 31 30 28 26 25 26 30 32 35 38
21 22 24 26 26 28 31 35 40 43 45 44 45 46 45 45 47 50 51 49 45 41 38 37 35 34 36 40 43 45 45 47 48 48 47 45 43 40 39 38 36 35 34 32 31 28 25 24 26 29 32 35
22 23 26 29 29 29 30 31 32 34 37 38 38 37 35 35 37 38 38 36 33 31 31 31 30 29 31 37 42 43 44 45 46 47 48 49 48 45 43 40 37 37 36 35 33 31 27 24 23 26 29 31
23 22 24 28 30 31 31 31 30 29 30 30 30 30 30 30 31 32 32 31 30 29 30 31 30 28 27 31 36 40 42 43 45 46 47 48 49 49 48 46 43 39 37 36 35 33 31 26 22 22 26 29
28 25 22 23 25 28 31 32 32 32 32 32 32 33 34 34 33 33 32 32 34 35 35 35 35 33 30 28 30 34 37 40 43 45 47 47 48 49 50 51 50 46 42 38 36 34 32 28 23 21 24 27
40 39 34 30 26 25 26 28 31 33 37 39 42 44 46 47 46 45 40 35 35 38 40 41 41 40 38 33 30 30 32 34 39 44 46 47 47 48 50 51 54 53 49 44 39 35 33 30 26 22 23 25
46 46 43 39 33 28 23 22 25 28 35 42 47 51 54 56 56 56 54 47 40 40 45 49 51 50 47 44 40 35 32 31 33 38 41 43 45 45 46 48 50 54 54 52 47 41 37 33 30 28 26 26
45 44 43 41 36 33 28 24 23 25 30 40 50 53 55 58 59 59 60 58 52 49 52 57 59 59 56 55 53 48 43 38 36 35 36 37 40 42 43 42 43 49 53 54 53 48 45 41 37 36 33 32
43 42 40 38 33 29 27 23 22 22 26 38 53 59 58 58 59 60 61 60 59 57 58 60 62 62 61 60 60 58 55 51 48 45 43 40 38 39 42 42 40 45 49 51 52 52 52 48 41 38 36 35
41 40 38 36 34 32 31 28 25 21 20 26 43 57 62 61 61 63 64 64 63 63 62 61 63 63 63 62 61 62 60 58 57 55 54 51 46 42 42 42 40 42 47 50 51 53 54 52 48 45 40 36
42 42 41 40 40 39 37 36 34 29 23 19 23 34 45 53 61 65 66 67 67 67 67 65 64 65 64 63 63 63 62 61 60 59 58 59 56 50 45 44 44 43 46 48 50 53 54 54 56 53 45 40
45 44 44 44 43 42 40 38 36 33 29 23 18 19 25 39 60 70 69 69 70 69 69 68 68 68 66 66 65 64 64 62 62 61 60 62 62 58 53 50 49 48 49 48 49 53 54 55 57 55 51 51
47 47 47 46 44 42 38 36 33 31 29 26 22 20 23 35 54 70 72 71 71 69 68 68 69 69 68 67 67 66 65 63 64 63 62 64 65 64 62 57 54 54 55 53 51 52 53 54 56 55 55 60
50 50 50 49 45 40 36 33 32 30 28 26 22 23 29 39 49 63 70 69 68 67 66 67 66 64 63 63 64 66 67 65 63 64 63 64 66 67 67 64 60 60 60 57 56 55 53 53 54 54 56 61

ECMWFFLT2_850_rhum_075.txt.gz
RH
20 20 21 21 22 23 25 26 26 27 27 27 27 27 27 27 26 27 26 26 26 26 27 27 27 27 27 27 29 32 29 28 29 30 33 36 41 43 43 40 38 33 27 25 21 19 18 17 17 16 15 14
21 22 22 23 23 25 26 26 27 27 27 27 28 28 28 28 27 26 26 26 26 26 26 26 26 27 27 27 27 27 27 27 28 28 28 30 31 33 34 33 32 32 32 30 26 24 22 21 20 18 17 15
23 24 24 24 25 26 27 27 28 28 28 28 29 29 29 29 28 27 27 26 26 26 26 26 26 26 26 27 27 27 27 27 27 27 28 29 29 30 31 31 32 33 33 33 33 30 27 26 23 21 19 17
24 25 25 26 27 27 28 28 29 29 30 30 30 30 30 30 30 30 30 30 29 29 28 28 27 27 27 27 27 27 27 27 27 28 27 28 28 29 30 31 32 32 33 34 35 34 34 32 28 26 22 20
26 26 27 27 28 28 29 29 30 31 31 32 32 33 34 34 35 35 35 35 34 34 33 32 31 30 29 28 28 27 27 27 27 27 27 27 28 28 28 29 30 32 33 33 35 36 36 36 35 32 28 25
26 27 28 28 29 30 30 31 32 32 33 34 35 36 37 38 38 39 38 38 38 37 36 35 34 33 33 32 30 30 28 28 27 27 27 27 27 27 28 28 29 30 31 32 34 35 36 37 38 37 35 32
27 28 29 29 30 31 31 33 33 34 35 36 37 38 39 40 40 40 40 40 40 39 37 36 35 34 34 34 33 33 32 31 29 29 28 27 27 27 27 28 28 28 29 31 32 33 34 36 38 39 40 38
27 28 29 30 31 31 32 33 34 35 35 36 37 38 39 40 41 41 41 41 40 38 36 35 34 34 33 34 35 34 35 34 33 32 31 30 28 28 27 27 28 28 28 29 30 31 32 34 35 37 39 40
28 28 29 31 31 32 33 33 34 34 35 36 37 38 38 39 39 40 39 38 36 34 33 32 33 32 32 33 35 35 36 36 36 36 35 34 32 30 29 28 28 27 28 28 29 29 30 32 32 34 36 37
28 29 30 31 32 32 33 33 33 34 34 35 35 36 36 36 36 36 35 33 32 32 31 32 32 32 33 34 35 36 37 38 39 38 37 37 37 36 33 31 29 27 27 27 27 28 29 29 30 32 32 34
29 30 31 31 31 32 32 33 33 34 34 34 35 35 34 34 33 33 32 31 31 31 31 32 33 33 33 33 35 36 38 40 40 39 39 40 40 40 39 37 34 31 29 27 27 27 27 28 29 30 31 32
29 30 31 31 32 33 33 34 34 35 35 36 36 36 36 35 34 34 33 33 34 34 35 36 35 34 33 33 35 36 38 40 40 39 40 41 42 42 43 43 42 39 36 32 29 27 27 27 28 28 29 30
31 32 33 33 34 34 34 34 34 34 34 35 36 37 37 38 39 39 39 39 40 39 39 38 35 33 33 33 33 34 34 34 34 34 35 35 35 36 37 39 42 43 43 41 37 33 30 28 27 27 27 28
31 30 30 29 29 29 28 29 28 29 29 31 35 39 41 43 44 44 44 44 42 39 36 33 31 30 30 29 28 27 27 26 26 25 26 26 25 26 26 28 30 34 38 40 42 42 39 35 31 29 27 27
23 23 22 22 22 22 23 24 24 26 27 29 34 39 42 44 44 43 42 39 36 32 29 28 27 28 28 27 26 25 25 25 25 24 24 24 24 24 23 23 23 24 26 29 34 38 41 43 40 37 33 30
19 18 18 18 18 19 20 22 24 26 27 29 31 33 35 36 37 36 34 32 30 29 28 28 28 28 28 27 27 27 27 27 26 26 26 26 25 24 24 23 22 21 22 22 24 27 31 37 41 43 42 39
21 20 18 18 17 17 20 21 23 26 28 30 30 31 32 33 33 32 32 31 31 31 31 31 31 31 31 30 29 28 27 27 27 27 26 26 25 25 24 23 22 21 20 20 20 22 24 26 30 34 38 41
26 25 23 22 21 20 21 21 21 23 25 26 27 28 29 31 32 33 35 36 37 38 38 39 39 39 39 38 37 36 33 30 28 28 28 28 27 26 25 24 23 21 19 18 18 19 20 20 21 24 27 31
30 30 29 28 27 25 24 23 23 23 23 24 24 24 24 24 24 25 29 35 40 43 44 44 44 45 47 49 49 48 46 43 37 34 32 32 33 32 30 29 26 24 22 20 19 18 18 17 18 19 20 21
34 34 35 34 33 31 31 30 29 29 30 31 32 32 31 30 28 26 26 28 31 35 36 38 39 41 47 54 58 59 58 56 52 47 43 39 40 40 37 35 32 30 28 26 25 22 21 20 19 18 17 17
38 38 38 38 38 37 37 37 37 37 37 38 39 40 40 39 38 35 32 30 29 29 29 30 32 35 42 51 58 62 64 64 63 60 56 52 51 51 48 44 41 38 36 35 32 29 27 26 24 22 19 18
39 40 40 40 41 41 42 43 43 43 44 45 45 45 45 44 42 40 37 34 32 30 29 28 27 31 43 52 54 57 61 63 66 67 66 64 62 62 60 56 53 49 46 44 41 37 34 32 30 27 25 23
41 41 42 43 43 45 45 46 47 48 49 50 50 49 48 46 44 42 39 37 34 32 30 29 25 27 39 54 59 58 59 60 64 67 68 69 67 67 67 65 63 60 57 54 50 45 41 39 37 33 30 28
42 43 43 45 46 48 49 51 52 52 53 53 52 51 49 47 44 42 40 37 34 31 30 29 27 26 35 53 63 63 64 64 64 67 68 68 69 68 68 68 67 66 65 63 59 53 49 47 44 40 36 32
44 45 47 49 52 53 55 56 56 56 57 56 53 49 46 43 40 38 36 34 31 29 28 27 29 33 41 56 66 68 69 68 68 69 69 68 68 68 68 68 67 68 66 65 63 60 57 54 50 46 41 35
45 48 52 54 57 58 59 60 60 59 57 53 48 43 38 34 31 29 28 27 27 26 25 27 32 40 49 59 67 70 71 71 71 70 70 70 69 69 69 68 67 67 66 64 63 62 63 60 54 50 45 39
50 53 56 59 60 61 62 62 60 57 50 45 39 33 28 25 23 23 23 23 23 23 23 26 31 39 49 59 66 69 70 70 71 71 72 72 71 71 70 69 67 66 66 65 63 63 63 62 61 58 53 47
56 59 60 62 63 63 63 60 56 50 43 37 31 25 21 19 19 19 19 19 18 19 19 21 25 29 36 47 57 64 69 70 71 71 71 71 72 71 71 69 66 65 66 66 65 62 60 62 66 64 59 56
61 63 64 64 64 63 60 55 49 43 35 28 21 18 15 14 14 14 13 13 12 11 12 13 16 19 23 28 36 46 58 66 70 72 73 74 73 72 72 70 67 64 64 64 65 64 62 62 64 64 63 64
66 66 66 65 62 57 51 45 37 30 23 17 14 13 11 10 10 9 9 8 7 7 6 6 7 9 12 14 18 25 36 47 57 65 70 74 77 77 77 76 74 69 64 63 64 66 64 61 62 64 66 69
69 68 64 60 54 46 38 31 24 18 13 10 9 8 7 7 7 7 7 6 6 6 5 5 5 5 5 6 7 11 17 25 35 47 56 66 74 78 81 82 81 76 71 68 66 67 66 62 62 64 67 69

ECMWFFLT2_850_rhum_081.txt.gz
RH
21 22 23 25 25 26 26 27 27 27 28 27 27 27 27 27 27 27 26 27 26 26 26 26 27 26 27 26 26 26 26 26 25 25 24 24 24 24 24 23 24 23 22 21 20 21 21 24 26 28 29 28
21 22 23 26 25 27 27 27 29 28 29 28 28 29 28 29 28 28 28 28 28 28 29 29 30 30 30 29 29 29 29 29 28 27 26 26 26 26 27 26 26 24 23 23 22 21 22 23 23 25 28 29
20 25 24 26 27 27 28 28 29 28 30 30 29 30 30 30 30 31 31 31 32 32 33 34 35 35 34 33 32 32 32 31 30 29 28 28 28 28 29 28 28 27 25 24 23 23 23 23 22 23 25 26
25 26 25 26 28 27 29 29 30 31 31 31 32 32 32 33 33 34 34 35 35 35 36 35 36 35 36 35 33 31 31 32 31 30 29 28 27 27 28 28 28 28 28 26 25 25 24 24 23 22 23 25
43 27 27 29 29 29 30 30 31 32 32 33 33 33 35 34 37 44 44 40 36 36 35 34 34 33 33 32 31 30 29 29 28 27 26 24 23 23 24 24 24 23 25 27 27 27 27 26 24 23 23 24
40 26 29 31 29 31 31 31 33 32 33 34 34 35 34 35 48 54 48 42 38 38 38 36 35 34 33 31 29 27 25 24 23 22 20 19 18 17 18 19 19 19 20 21 24 26 27 28 27 26 25 25
28 29 33 33 31 31 31 32 32 33 34 33 34 36 33 39 53 49 40 42 38 39 41 39 36 34 32 28 26 24 22 19 18 18 16 16 16 15 16 15 16 18 18 17 18 20 22 25 27 28 28 27
33 36 34 34 32 31 33 33 32 33 33 34 35 35 35 39 46 40 38 43 39 42 44 41 37 33 31 26 22 21 19 17 16 17 16 16 16 16 16 16 17 17 18 17 17 18 18 20 22 25 27 28
36 34 30 32 31 30 32 32 32 34 33 34 34 35 36 37 38 36 42 46 42 45 45 42 41 38 37 30 24 20 19 19 19 19 18 18 17 18 18 18 19 18 19 19 18 18 18 18 18 19 22 24
33 27 28 31 29 30 32 32 33 36 38 37 35 36 36 38 42 43 48 51 45 45 45 44 44 42 38 29 25 23 21 21 21 20 19 19 19 19 19 18 18 17 18 18 18 18 17 18 18 18 19 19
27 24 28 28 28 32 34 36 38 39 40 38 37 38 39 41 49 53 55 58 55 51 48 46 41 35 31 27 26 26 23 21 19 20 19 18 18 18 17 16 16 15 14 14 13 13 13 13 14 15 16 17
26 27 29 29 32 33 34 39 42 42 41 43 45 42 41 42 51 57 56 57 56 52 45 39 32 25 27 27 26 27 24 23 22 21 22 21 20 20 19 18 18 17 15 14 13 12 12 11 10 11 12 13
31 31 32 35 36 35 37 39 39 41 43 50 52 44 37 38 45 49 53 54 50 49 41 33 32 28 32 32 30 35 32 32 32 27 26 27 25 26 26 26 26 25 21 19 17 16 14 13 12 11 11 10
38 37 38 38 38 37 37 37 37 40 45 48 44 36 31 31 34 35 44 47 40 42 40 37 45 45 46 45 42 48 47 42 37 29 29 30 28 29 31 31 31 30 27 25 23 21 18 16 15 14 13 12
45 42 39 34 32 30 28 31 34 36 39 39 31 26 26 25 26 26 31 32 27 29 28 34 45 44 45 49 51 58 59 48 34 28 28 27 26 24 25 27 28 29 30 29 28 27 24 19 17 16 14 13
39 34 30 26 24 23 22 25 27 27 28 30 28 26 27 29 30 31 32 32 32 32 31 34 37 35 35 43 54 57 50 38 28 26 28 31 32 28 28 27 28 32 35 35 34 35 33 26 21 18 16 15
29 27 26 26 26 26 29 29 29 31 31 34 36 35 36 37 39 41 41 41 42 42 42 41 39 39 38 41 51 46 35 30 28 30 33 37 39 41 47 47 47 48 47 45 42 43 42 37 30 24 22 17
30 31 32 33 33 34 36 38 38 39 40 42 43 44 44 44 46 47 47 47 47 47 46 46 44 44 43 44 45 38 34 34 32 32 32 36 40 46 55 57 60 60 56 52 48 49 48 45 42 37 34 26
35 36 37 37 38 40 41 42 43 43 45 47 48 50 50 50 50 49 49 48 47 47 46 44 43 43 43 43 41 37 38 36 33 32 33 39 45 47 51 53 58 62 61 57 54 56 55 54 50 45 42 37
38 39 40 41 41 42 44 44 46 48 49 52 54 55 54 52 49 46 44 43 42 41 40 38 36 36 37 36 35 35 36 34 33 34 36 39 42 44 49 56 60 59 57 56 57 60 61 61 54 47 46 43
40 41 43 44 45 45 47 49 50 52 54 56 57 57 56 51 44 40 37 36 35 34 31 30 28 29 29 29 29 30 30 30 31 34 38 41 45 49 52 56 62 63 61 60 63 64 64 61 55 51 50 49
42 44 45 47 50 51 53 54 55 57 58 59 60 59 56 49 41 36 32 31 28 27 24 22 22 24 24 23 23 25 25 27 31 37 42 44 45 47 50 54 61 65 65 61 60 60 58 53 48 45 45 50
46 47 49 52 55 57 59 60 61 62 62 61 61 58 52 43 36 31 28 25 23 21 20 18 19 20 20 20 20 20 21 23 28 33 34 33 34 39 46 52 55 59 63 63 61 56 49 42 40 42 45 49
52 54 56 59 62 64 65 66 65 64 62 60 57 50 43 35 29 26 23 20 19 18 17 16 16 16 16 16 16 16 16 18 19 21 21 21 26 34 41 47 54 62 69 72 69 57 45 43 50 57 58 54
66 67 68 69 71 71 70 67 64 62 58 55 50 41 33 28 24 22 18 16 15 13 13 13 12 12 12 12 13 12 12 13 12 13 15 17 24 35 49 62 68 70 71 71 68 59 54 56 57 55 52 53
79 77 76 74 72 69 67 62 58 57 52 46 41 33 26 24 21 18 15 12 11 10 9 9 9 9 9 9 10 10 10 10 10 11 13 17 25 35 47 57 57 57 63 69 71 68 64 59 49 42 44 53
80 77 74 71 67 63 58 54 51 47 42 37 33 28 23 20 18 16 13 11 10 9 8 7 8 8 8 8 8 8 9 9 10 12 14 20 30 35 37 42 48 57 68 77 78 74 65 55 48 45 44 47
76 73 70 67 62 58 52 47 43 38 34 31 27 24 21 18 17 14 12 11 10 9 8 7 8 8 8 7 7 7 7 8 8 10 17 25 31 33 36 43 49 54 63 72 77 74 66 57 54 49 42 43
70 67 63 60 55 52 47 42 36 31 27 23 20 18 16 14 13 12 11 10 9 8 7 7 7 7 7 6 7 7 6 7 7 8 17 24 21 17 24 36 40 39 45 60 73 77 75 66 57 50 48 50
65 60 56 53 50 45 38 33 27 23 19 16 14 13 11 10 10 10 9 8 8 7 7 7 7 6 6 6 6 6 6 6 6 8 12 13 10 7 12 20 27 35 42 52 68 78 80 76 69 65 64 62
61 57 53 49 45 37 28 23 19 16 14 12 11 10 9 10 9 8 8 8 7 8 8 7 6 6 6 6 6 6 6 6 6 7 8 7 6 6 8 11 24 44 54 57 64 71 76 78 78 79 79 77

ECMWFFLT2_850_rhum_084.txt.gz
RH
47 47 39 31 28 26 27 25 26 26 25 26 26 27 26 26 26 26 26 26 26 26 26 27 27 28 28 28 28 28 28 26 23 22 21 19 19 18 16 16 15 15 14 14 14 14 14 15 16 16 17 18
23 24 25 24 24 24 25 25 26 25 26 27 26 27 27 27 27 27 27 27 27 29 31 32 32 33 33 31 29 28 28 26 24 21 19 17 17 15 15 14 13 13 13 13 13 12 12 12 13 15 15 16
21 20 22 23 23 25 25 26 27 27 27 27 28 28 27 28 27 28 29 28 29 31 33 33 34 33 33 30 27 25 25 24 22 20 18 16 15 14 13 12 12 12 11 12 12 11 11 10 11 12 13 14
20 21 22 23 25 26 27 28 28 29 29 28 28 28 28 29 29 29 29 28 29 31 32 32 31 29 28 27 24 23 23 23 21 19 17 15 14 13 12 11 11 11 11 11 10 10 10 10 9 9 11 11
24 24 25 25 27 27 28 29 29 30 29 30 29 29 30 30 31 34 37 35 30 31 30 28 29 28 27 25 23 22 21 21 19 17 16 15 14 13 13 12 11 11 11 10 10 10 9 9 9 8 9 9
38 24 27 26 27 28 29 30 31 31 30 30 30 30 31 31 37 48 52 44 36 35 33 30 30 28 26 24 23 22 20 19 17 17 16 16 15 15 15 13 12 11 10 10 9 9 9 9 9 9 8 9
45 26 34 34 32 31 30 31 30 31 32 32 32 31 32 34 43 51 49 42 39 39 36 34 31 28 26 23 22 21 20 18 17 17 17 18 17 16 16 15 13 12 11 10 9 8 8 8 8 9 9 9
48 42 48 44 40 36 36 39 34 32 32 31 33 33 33 35 38 41 39 39 43 43 40 37 34 32 31 28 26 21 20 18 17 17 17 17 16 15 14 13 13 13 12 10 9 8 7 7 7 8 8 8
50 48 46 45 44 40 41 42 37 40 40 34 33 34 35 35 36 38 39 44 50 51 46 43 43 44 44 44 36 28 28 28 23 21 20 20 19 17 16 15 14 13 12 11 10 9 8 7 6 6 6 6
43 39 40 46 46 46 49 45 44 51 50 42 37 37 36 37 46 52 52 57 61 60 55 52 53 53 49 47 42 38 41 41 34 26 24 28 28 23 20 18 15 12 12 11 10 10 9 9 8 7 7 6
36 34 37 40 39 45 53 52 53 54 52 49 44 42 40 41 54 62 60 61 63 62 59 55 54 48 38 40 45 44 48 47 42 38 34 36 35 29 25 22 19 16 14 11 10 9 9 8 9 8 7 7
37 40 41 40 38 40 47 52 56 54 55 58 52 47 45 43 50 58 59 60 61 60 60 58 54 49 42 48 52 47 51 52 49 49 42 37 35 32 28 24 22 20 17 15 12 11 10 9 9 9 9 8
47 50 49 47 44 43 47 50 52 55 58 60 57 49 41 38 43 51 55 59 59 53 54 52 52 60 60 58 57 53 56 56 55 53 42 34 32 31 29 26 24 23 21 18 16 14 14 12 10 10 10 9
55 54 52 51 51 50 52 52 52 55 56 54 47 37 30 28 32 37 39 44 44 38 38 37 41 55 57 51 50 55 60 59 60 52 39 33 31 32 31 28 26 24 23 22 21 20 18 17 15 14 13 12
56 53 51 49 47 46 46 46 45 44 44 41 34 29 31 33 34 37 37 39 40 39 40 40 41 45 46 43 43 52 60 60 57 47 37 33 33 37 36 32 29 29 29 28 27 26 25 24 22 20 18 16
48 45 42 39 36 38 40 38 36 37 39 42 43 40 40 44 46 47 47 46 46 46 46 46 47 45 45 47 50 55 57 53 47 41 38 39 42 45 41 38 39 41 40 37 36 35 34 32 29 26 24 21
42 40 39 37 36 42 47 44 42 44 46 51 55 52 48 51 53 53 51 47 42 41 41 42 43 43 45 50 54 53 49 46 42 39 39 41 42 42 43 46 48 50 48 45 43 41 41 40 36 31 28 27
45 45 44 42 42 45 49 50 49 49 51 54 57 57 56 56 57 56 52 46 38 33 33 34 35 36 41 48 48 44 42 41 37 35 35 36 39 44 50 52 49 47 45 46 47 47 47 44 40 38 36 33
50 50 49 49 49 49 50 52 52 53 56 58 58 59 59 59 58 56 51 44 35 29 28 28 29 30 35 40 37 33 33 31 29 30 32 38 45 49 49 47 44 45 47 47 47 45 43 43 43 44 43 39
51 51 51 52 52 52 54 54 55 58 60 61 62 61 61 60 57 52 47 40 31 27 25 24 24 24 29 31 27 24 24 24 25 28 34 41 48 50 49 48 45 44 43 41 41 42 44 48 49 47 44 37
50 51 53 55 57 59 62 62 62 64 65 64 63 61 59 57 53 49 44 36 30 27 24 22 21 19 22 23 20 19 19 20 21 29 40 45 47 50 48 43 38 34 33 34 36 38 39 41 41 40 37 30
51 53 57 62 65 68 69 68 65 64 63 63 61 57 55 51 47 44 39 33 29 26 23 20 18 17 17 17 17 17 17 17 17 25 36 36 34 33 30 28 27 26 26 26 28 30 32 33 32 30 26 23
59 62 66 68 69 69 67 65 62 60 60 59 56 51 47 44 41 39 35 31 28 25 21 17 15 14 14 13 14 14 14 14 14 17 20 19 18 17 19 23 24 27 32 38 43 43 39 36 31 28 26 26
71 71 70 69 67 65 64 62 59 56 56 53 50 46 40 36 35 33 30 28 26 24 20 16 13 12 11 11 11 12 11 11 11 11 12 12 14 17 19 22 26 36 50 57 52 41 34 36 39 37 32 28
74 71 69 67 66 65 63 61 58 55 53 50 47 43 37 32 30 29 26 24 23 21 19 16 14 11 10 10 10 10 9 9 9 9 10 12 15 20 23 23 24 30 43 48 43 43 46 45 42 37 33 32
71 70 69 68 67 66 63 61 59 56 54 51 48 43 38 33 29 27 24 21 19 18 17 16 14 13 12 11 10 9 8 8 8 8 9 10 13 19 22 22 20 25 42 56 63 71 67 49 38 35 37 41
70 70 69 68 66 63 61 58 56 54 53 51 47 42 38 34 28 25 23 19 18 16 14 14 14 13 12 11 9 8 8 8 7 8 7 8 15 22 20 15 16 26 47 67 73 70 59 51 50 43 34 33
69 67 66 64 61 58 56 53 50 49 48 46 43 38 33 29 24 21 19 17 15 14 13 13 12 11 10 9 8 8 8 7 7 7 7 9 16 21 18 13 12 15 25 38 48 56 60 60 62 52 41 40
64 63 61 59 56 54 51 48 45 43 42 40 37 32 27 23 20 19 17 15 15 13 14 16 13 9 9 7 7 7 7 7 6 7 7 9 13 16 15 12 9 8 9 13 27 53 69 69 70 64 56 51
61 60 59 57 55 53 49 47 42 39 37 32 27 23 20 17 17 19 16 15 18 14 14 21 17 9 8 7 6 7 7 7 7 7 7 8 10 10 10 9 8 8 10 13 23 46 63 69 74 73 66 66
62 61 60 58 56 53 49 44 39 35 31 24 20 17 15 13 14 18 16 13 15 13 14 20 17 9 7 7 7 7 7 7 7 7 7 7 8 7 7 7 8 10 13 13 16 27 43 57 68 72 72 77

ECMWFFLT2_850_rhum_087.txt.gz
RH
97 97 96 97 97 95 92 84 65 39 25 25 27 26 27 28 29 29 29 30 30 31 32 33 32 32 31 30 30 28 25 23 21 20 20 20 19 18 18 17 16 16 15 14 14 14 14 14 14 14 13 13
88 86 80 74 69 64 58 48 34 25 27 28 26 28 29 29 30 29 30 31 31 33 33 33 33 31 30 28 26 24 22 20 18 18 17 17 16 16 16 15 15 14 14 14 14 13 13 14 14 14 15 13
50 46 40 36 33 31 30 28 27 27 28 27 28 29 29 30 31 30 30 31 33 33 32 32 31 30 28 25 23 21 19 18 17 17 16 16 15 15 14 14 14 14 14 13 13 12 12 12 13 13 14 14
23 25 25 26 26 26 27 27 27 28 29 29 31 30 31 33 32 33 32 33 33 30 30 30 30 28 26 24 22 20 19 18 18 17 16 16 15 15 14 14 14 14 14 14 13 12 11 11 11 11 11 12
22 23 24 24 26 27 28 29 29 30 31 31 32 32 33 34 33 36 36 36 35 32 30 30 30 28 26 24 22 21 20 19 18 17 16 16 15 15 15 15 14 14 14 13 12 11 11 10 10 10 9 9
31 23 26 26 27 29 30 31 32 31 32 32 32 32 33 34 35 38 41 41 41 38 34 34 33 31 28 24 22 22 21 20 18 17 16 16 16 15 15 14 13 12 12 10 10 9 9 8 8 8 7 7
44 29 30 31 31 33 33 33 35 35 35 35 35 36 35 35 37 41 44 43 44 44 42 42 38 34 31 27 25 22 21 19 17 17 16 15 14 14 13 11 11 10 9 9 8 8 7 7 7 6 6 5
53 41 40 40 42 42 40 40 43 42 38 40 41 38 36 36 38 42 46 47 49 53 52 49 43 38 33 30 27 22 20 19 18 17 15 14 13 12 11 10 10 9 9 9 9 8 8 7 7 6 6 5
55 54 49 47 49 49 48 50 52 49 45 43 41 39 38 38 39 41 45 49 52 55 54 50 45 41 37 32 27 23 22 21 21 20 18 16 14 12 11 11 11 10 10 9 9 9 8 8 8 7 6 6
50 50 47 50 53 52 53 56 56 54 52 47 42 41 41 41 42 43 46 49 51 52 51 48 44 40 37 31 27 27 27 26 27 28 26 21 17 16 15 14 14 12 11 10 9 9 9 8 7 8 7 7
44 43 45 52 56 57 58 60 59 58 55 50 46 47 46 45 45 46 47 49 49 51 51 50 46 39 33 28 29 34 34 34 37 38 36 28 22 21 20 20 18 16 15 13 11 9 9 9 8 9 8 8
47 46 46 49 55 60 61 61 60 58 56 51 50 51 48 43 45 49 51 51 51 50 50 47 39 32 27 26 33 39 37 39 43 47 44 34 28 26 25 25 23 21 20 17 16 14 13 12 10 10 10 10
54 53 50 49 53 58 59 59 59 59 60 57 53 47 38 32 35 43 46 45 44 41 39 35 31 29 29 31 37 40 38 37 41 46 46 37 33 32 30 30 29 26 24 23 22 20 18 16 14 13 12 12
60 58 56 56 57 58 58 58 58 57 55 51 44 35 31 33 34 37 38 38 37 36 35 33 33 35 36 38 39 40 38 37 37 41 42 39 38 36 34 34 32 29 27 26 26 26 23 21 20 19 17 16
56 56 55 55 54 54 53 51 51 50 45 39 35 35 39 44 44 44 45 44 44 42 39 36 34 33 35 37 38 38 37 37 37 39 40 42 42 39 36 34 34 34 33 33 37 38 36 33 30 28 26 24
52 52 52 51 51 50 50 48 49 50 49 45 41 44 48 50 50 51 51 50 49 46 42 37 31 28 30 32 33 34 35 35 37 38 39 41 42 39 35 34 35 37 39 42 48 53 52 48 43 40 37 35
50 50 52 54 55 55 55 53 52 54 55 54 52 51 53 55 56 55 54 52 49 46 42 37 31 26 25 27 29 30 32 33 35 35 35 35 35 32 29 29 30 34 40 45 48 51 50 48 48 49 48 46
48 49 50 52 53 53 54 53 54 55 56 57 58 57 57 58 56 54 52 49 46 44 41 38 33 27 24 24 24 24 26 28 30 30 29 27 25 23 22 22 25 31 36 39 40 39 37 38 43 47 47 46
50 51 51 52 52 53 55 57 58 59 60 60 59 57 56 54 52 50 49 46 44 42 40 38 34 30 26 23 22 21 22 22 22 23 22 20 19 18 18 20 23 27 30 31 31 31 29 29 31 34 35 37
52 53 55 58 60 62 64 64 63 61 60 58 56 55 53 51 50 49 47 45 43 40 38 35 34 32 28 25 23 21 20 19 18 18 17 17 18 18 19 20 22 25 27 25 23 22 22 21 21 21 22 25
58 60 62 64 65 67 66 64 62 60 59 57 56 55 54 53 52 50 49 46 43 41 38 35 33 31 28 26 24 22 20 18 16 15 15 15 17 18 20 21 20 20 20 18 16 16 15 16 16 16 18 19
65 66 67 67 66 66 64 64 63 62 61 60 59 58 58 56 54 53 51 48 46 42 39 36 32 29 28 27 25 23 20 17 14 13 12 12 13 14 16 16 15 15 15 15 14 14 14 15 15 15 15 14
66 66 66 66 66 66 66 66 66 66 64 63 61 59 58 56 55 54 51 48 46 43 40 36 32 29 27 25 23 21 18 16 13 11 10 10 10 10 11 11 12 12 13 13 13 13 13 12 12 13 14 14
65 65 66 66 66 66 67 67 67 66 64 61 58 54 51 50 50 49 47 44 41 38 35 33 31 28 26 22 19 18 16 14 12 11 10 9 9 9 9 10 10 11 12 14 13 13 14 14 15 14 16 16
63 64 64 64 65 64 64 64 62 60 58 55 51 47 44 42 42 42 41 38 35 31 28 26 25 23 22 19 16 15 14 13 12 10 9 8 8 9 9 10 10 12 15 16 15 16 14 12 15 16 17 17
59 61 61 61 61 61 60 58 57 55 53 50 47 43 40 38 38 36 34 32 30 27 23 21 20 19 18 16 13 12 11 11 10 9 9 8 8 9 10 10 11 14 19 24 28 30 22 14 14 15 16 17
55 57 58 58 58 58 57 55 54 53 51 48 46 42 39 37 34 30 28 27 25 22 20 18 17 16 15 13 12 10 9 9 8 8 8 7 8 8 9 9 11 14 21 26 29 33 32 30 27 18 17 22
54 56 57 57 57 56 55 54 52 51 49 46 43 40 36 32 28 24 23 22 20 19 18 16 15 14 13 12 10 9 9 8 7 7 6 7 7 8 9 9 9 11 14 15 20 35 42 41 44 43 42 36
62 61 61 59 58 56 54 52 50 48 45 42 38 34 29 25 21 18 18 18 17 18 17 15 13 12 11 10 9 9 8 7 7 7 6 7 7 7 10 10 8 7 7 6 13 39 55 53 59 64 59 46
69 67 65 61 58 53 49 46 43 40 37 35 31 24 19 17 16 14 14 15 15 15 15 13 12 12 11 10 9 8 8 7 7 7 7 7 7 7 8 9 8 6 7 6 6 20 44 56 63 61 56 58
73 70 66 61 55 46 38 35 33 31 28 26 22 17 15 14 13 13 13 13 13 13 14 14 14 13 10 10 9 8 8 8 8 8 8 8 7 7 7 7 8 7 7 8 6 6 18 33 45 52 55 63

ECMWFFLT2_850_rhum_090.txt.gz
RH
94 94 94 95 97 95 88 75 59 45 34 28 30 30 30 31 30 30 31 32 33 35 34 35 34 33 32 30 29 27 25 23 20 19 19 18 17 16 16 15 14 14 14 15 15 15 16 15 16 15 15 15
85 88 86 83 82 76 59 41 33 30 30 31 30 31 31 30 30 29 31 35 38 38 35 35 34 34 32 30 28 25 23 22 20 19 18 18 16 16 16 15 14 14 13 13 14 14 14 14 14 14 14 14
68 64 56 50 49 47 37 31 32 32 31 31 31 32 32 30 30 31 33 38 41 40 38 35 33 35 34 32 29 26 25 22 21 20 18 17 16 16 15 15 15 14 14 13 13 13 12 12 12 12 13 13
45 39 32 33 34 33 32 33 32 33 33 33 33 33 33 33 33 35 38 41 40 39 40 37 36 37 36 34 30 27 25 23 22 20 18 18 16 16 16 16 16 15 15 14 13 12 11 11 10 10 10 10
27 27 26 29 32 32 34 35 36 36 34 34 34 34 34 34 36 38 42 46 45 44 44 43 43 42 40 37 34 30 25 23 22 20 19 18 17 16 16 15 15 14 13 12 11 10 10 9 9 8 8 8
31 29 33 36 39 40 41 41 40 39 37 36 35 34 34 34 37 38 41 47 48 47 47 47 48 46 43 39 36 31 25 22 20 20 19 18 17 15 14 14 13 12 11 11 10 9 9 8 8 7 7 7
47 41 40 44 45 46 49 47 43 42 41 39 38 39 39 39 39 39 41 45 47 48 49 50 50 47 44 40 36 30 26 22 19 18 18 18 17 15 14 12 12 11 11 10 9 9 9 8 8 7 7 7
57 50 46 46 47 48 52 52 49 48 47 46 49 49 47 45 43 43 45 47 50 52 53 52 51 49 46 41 36 30 26 22 20 18 17 17 17 16 15 12 12 12 12 12 11 11 10 10 9 8 8 7
56 53 51 51 54 55 56 58 58 57 57 57 57 56 53 49 47 48 49 51 53 54 54 54 54 51 47 41 34 28 25 23 21 19 17 17 17 18 17 15 14 14 14 14 13 13 11 11 10 10 10 9
55 53 54 58 62 62 62 65 66 64 63 62 59 55 52 49 50 51 52 53 54 55 56 55 54 51 44 35 28 24 22 23 22 20 18 18 19 21 20 18 17 17 18 17 15 14 13 13 12 12 12 12
51 53 58 62 64 65 64 66 67 65 64 60 57 53 51 49 47 48 51 53 54 54 52 49 46 41 35 29 25 23 22 22 23 22 21 21 21 21 21 21 20 20 20 20 18 16 15 14 13 13 12 13
53 56 59 61 63 63 63 64 64 62 60 57 54 52 49 43 38 39 42 44 44 43 39 37 36 33 31 29 29 29 27 26 25 25 25 25 25 24 23 22 23 23 22 22 20 18 17 16 14 13 13 12
53 55 57 58 59 60 60 61 60 58 58 56 54 50 43 36 33 33 34 35 35 35 34 34 34 34 33 31 30 29 29 29 28 27 27 27 28 27 25 23 22 22 21 20 19 18 17 17 15 14 14 13
54 54 55 55 55 57 57 57 56 56 55 52 47 42 38 36 37 38 37 38 38 38 38 37 37 35 33 31 29 27 26 25 25 25 25 26 26 25 25 23 21 19 18 18 17 17 17 17 16 15 15 14
55 54 54 54 54 54 55 54 52 50 47 43 40 39 40 41 42 43 43 43 43 43 41 40 38 36 34 32 30 28 25 23 22 22 22 23 22 23 22 20 19 18 16 16 16 16 15 16 15 16 16 15
54 53 53 52 52 51 52 52 50 47 44 42 42 43 44 46 47 48 48 47 45 44 42 41 39 37 36 34 32 30 28 25 22 21 20 21 21 20 20 19 18 17 16 15 15 15 14 14 15 15 16 16
50 49 50 50 49 49 50 50 50 48 48 48 49 50 51 52 52 51 50 48 46 44 43 41 40 40 38 36 35 33 32 30 26 24 21 20 19 19 19 18 17 17 16 15 14 14 14 14 14 15 15 16
46 46 47 48 48 48 49 49 51 53 54 55 55 56 56 55 53 52 50 49 48 47 45 44 43 42 41 39 37 36 35 33 31 29 26 23 21 19 18 17 17 16 16 15 15 15 15 15 14 14 14 14
45 46 47 49 52 54 55 55 57 59 60 60 60 59 58 57 55 54 53 52 51 51 50 49 48 46 44 43 40 39 37 35 34 32 30 27 25 24 21 20 18 17 17 16 16 15 15 15 14 14 14 14
51 53 55 58 61 64 64 64 64 64 64 64 63 62 61 60 59 58 57 56 55 54 54 52 51 50 48 46 44 42 39 37 35 33 32 29 27 27 25 23 22 20 19 17 17 17 16 15 15 14 13 13
59 61 63 65 67 68 69 69 69 68 68 68 68 66 65 64 62 60 58 56 54 52 52 52 51 51 49 47 45 43 41 38 35 33 32 31 27 24 24 24 23 21 20 19 19 17 16 16 14 14 13 13
62 63 65 66 67 69 70 71 71 71 70 69 68 66 64 62 59 56 53 50 48 46 45 46 46 47 45 44 42 40 38 36 33 30 28 29 26 22 20 20 19 19 18 18 18 18 17 15 13 13 12 11
57 59 60 62 63 64 65 66 66 66 66 65 63 62 59 57 54 51 48 45 43 41 40 40 40 40 39 38 36 35 33 30 28 26 24 23 24 22 19 16 15 14 15 16 16 16 15 14 14 14 12 11
43 45 47 50 52 54 55 56 57 57 57 56 55 55 53 51 49 47 44 42 40 39 37 36 36 35 33 31 29 27 25 23 21 20 19 18 19 19 18 16 13 12 13 15 15 15 15 15 14 13 13 12
33 34 37 40 43 46 47 49 50 49 49 49 48 47 46 44 43 41 39 37 35 34 34 32 31 30 28 24 22 21 18 17 16 14 14 13 13 13 14 14 12 11 11 12 14 15 16 16 14 13 12 10
29 31 36 43 48 49 51 51 50 49 48 45 42 40 39 37 35 33 30 28 28 27 26 24 23 23 22 19 17 16 14 13 12 11 10 10 10 9 9 9 8 9 10 11 13 13 13 14 14 13 12 12
29 29 33 43 55 58 57 56 52 49 43 36 33 32 31 30 27 24 21 20 20 20 19 18 18 18 16 14 13 13 12 11 10 9 9 8 8 8 7 7 7 8 11 14 14 12 13 15 14 12 12 13
37 35 33 39 52 60 59 56 51 42 31 23 21 21 21 21 18 16 15 15 14 14 15 15 15 14 13 12 11 10 10 10 9 8 8 8 7 7 7 7 7 7 8 10 11 12 16 18 21 26 26 21
46 43 39 39 46 54 54 52 44 30 17 12 12 12 12 12 12 13 13 12 12 12 13 12 12 12 11 11 10 10 10 9 9 8 8 8 8 8 8 7 7 7 7 7 7 10 15 24 40 48 39 26
52 47 43 41 44 49 50 47 35 18 9 8 8 8 8 9 10 12 12 12 11 11 11 11 10 10 10 10 9 9 10 10 9 9 9 9 8 8 8 8 8 7 7 7 7 7 12 28 54 60 47 41
57 50 44 40 41 46 43 34 21 10 8 8 8 9 9 10 10 11 12 13 12 11 11 11 11 11 10 9 9 9 10 9 9 9 9 9 9 9 9 9 9 9 8 8 7 7 9 18 33 41 41 46